Wetterdaten: Sonntag, 18.12.2011
Datum Zeit Temp. Innen Temp. Aussen UV X Diff Temp. Feuchte Inne Feuchte Auss Sonnenschein Luftdruck Regen ab 0,1 Wind Sonnenschein T Regendauer Windben
18.12.2011 00:00 11,2 C 1,9 C 0,0 UV-I 0,0 C 52 % 89 % 0 % 1004,1 hPa 0,0 l/m 7,2 km/h (2 Bft) 0 min 2 min 9,6 km/h (2 Bft)
18.12.2011 00:02 11,2 C 1,9 C 0,0 UV-I 0,0 C 52 % 89 % 0 % 1004,1 hPa 0,1 l/m 7,2 km/h (2 Bft) 0 min 2 min 11,6 km/h (2 Bft)
18.12.2011 00:04 11,2 C 1,8 C 0,0 UV-I 0,0 C 52 % 89 % 0 % 1003,6 hPa 0,1 l/m 7,6 km/h (2 Bft) 0 min 2 min 10,4 km/h (2 Bft)
18.12.2011 00:06 11,3 C 1,7 C 0,0 UV-I 0,0 C 52 % 90 % 0 % 1003,6 hPa 0,0 l/m 7,6 km/h (2 Bft) 0 min 2 min 10,4 km/h (2 Bft)
18.12.2011 00:08 11,2 C 1,7 C 0,0 UV-I 0,0 C 52 % 90 % 0 % 1003,6 hPa 0,0 l/m 6,8 km/h (2 Bft) 0 min 2 min 9,6 km/h (2 Bft)
18.12.2011 00:10 11,1 C 1,7 C 0,0 UV-I 0,0 C 52 % 90 % 0 % 1003,6 hPa 0,0 l/m 6,8 km/h (2 Bft) 0 min 2 min 8,0 km/h (2 Bft)
18.12.2011 00:12 11,3 C 1,7 C 0,0 UV-I 0,0 C 52 % 90 % 0 % 1003,6 hPa 0,0 l/m 7,2 km/h (2 Bft) 0 min 2 min 18,9 km/h (3 Bft)
18.12.2011 00:14 11,1 C 1,7 C 0,0 UV-I 0,0 C 52 % 90 % 0 % 1003,6 hPa 0,1 l/m 7,2 km/h (2 Bft) 0 min 2 min 8,4 km/h (2 Bft)
18.12.2011 00:16 11,1 C 1,7 C 0,0 UV-I 0,0 C 52 % 90 % 0 % 1003,6 hPa 0,0 l/m 6,8 km/h (2 Bft) 0 min 2 min 10,4 km/h (2 Bft)
18.12.2011 00:18 11,1 C 1,7 C 0,0 UV-I 0,0 C 52 % 90 % 0 % 1003,6 hPa 0,0 l/m 7,2 km/h (2 Bft) 0 min 2 min 10,4 km/h (2 Bft)
18.12.2011 00:20 11,1 C 1,7 C 0,0 UV-I 0,0 C 52 % 90 % 0 % 1003,6 hPa 0,0 l/m 8,0 km/h (2 Bft) 0 min 2 min 16,1 km/h (3 Bft)
18.12.2011 00:22 11,2 C 1,7 C 0,0 UV-I 0,0 C 52 % 90 % 0 % 1003,6 hPa 0,1 l/m 7,6 km/h (2 Bft) 0 min 2 min 16,1 km/h (3 Bft)
18.12.2011 00:24 11,2 C 1,7 C 0,0 UV-I 0,0 C 52 % 90 % 0 % 1004,4 hPa 0,0 l/m 6,8 km/h (2 Bft) 0 min 2 min 5,2 km/h (1 Bft)
18.12.2011 00:26 11,2 C 1,7 C 0,0 UV-I 0,0 C 53 % 90 % 0 % 1004,4 hPa 0,0 l/m 6,4 km/h (2 Bft) 0 min 2 min 10,8 km/h (2 Bft)
18.12.2011 00:28 11,2 C 1,7 C 0,0 UV-I 0,0 C 53 % 90 % 0 % 1004,4 hPa 0,0 l/m 6,4 km/h (2 Bft) 0 min 2 min 12,4 km/h (3 Bft)
18.12.2011 00:30 11,2 C 1,8 C 0,0 UV-I 0,0 C 53 % 90 % 0 % 1004,4 hPa 0,0 l/m 6,0 km/h (2 Bft) 0 min 2 min 12,4 km/h (3 Bft)
18.12.2011 00:32 11,2 C 1,8 C 0,0 UV-I 0,0 C 53 % 90 % 0 % 1004,4 hPa 0,1 l/m 5,6 km/h (1 Bft) 0 min 2 min 9,6 km/h (2 Bft)
18.12.2011 00:34 11,2 C 1,9 C 0,0 UV-I 0,0 C 53 % 91 % 0 % 1004,4 hPa 0,0 l/m 5,6 km/h (1 Bft) 0 min 2 min 8,4 km/h (2 Bft)
18.12.2011 00:36 11,1 C 1,9 C 0,0 UV-I 0,0 C 53 % 91 % 0 % 1004,4 hPa 0,0 l/m 6,0 km/h (2 Bft) 0 min 2 min 19,7 km/h (3 Bft)
18.12.2011 00:38 11,1 C 1,9 C 0,0 UV-I 0,0 C 53 % 91 % 0 % 1004,4 hPa 0,0 l/m 5,6 km/h (1 Bft) 0 min 2 min 19,7 km/h (3 Bft)
18.12.2011 00:40 11,1 C 1,9 C 0,0 UV-I 0,0 C 53 % 91 % 0 % 1004,4 hPa 0,1 l/m 5,2 km/h (1 Bft) 0 min 2 min 4,0 km/h (1 Bft)
18.12.2011 00:42 11,1 C 1,9 C 0,0 UV-I 0,0 C 53 % 91 % 0 % 1004,4 hPa 0,0 l/m 4,0 km/h (1 Bft) 0 min 2 min 19,7 km/h (3 Bft)
18.12.2011 00:44 11,1 C 1,9 C 0,0 UV-I 0,0 C 53 % 91 % 0 % 1004,1 hPa 0,0 l/m 3,6 km/h (1 Bft) 0 min 2 min 5,6 km/h (1 Bft)
18.12.2011 00:46 11,1 C 1,9 C 0,0 UV-I 0,0 C 53 % 91 % 0 % 1004,1 hPa 0,0 l/m 4,4 km/h (1 Bft) 0 min 2 min 7,6 km/h (2 Bft)
18.12.2011 00:48 11,1 C 1,9 C 0,0 UV-I 0,0 C 53 % 91 % 0 % 1004,1 hPa 0,0 l/m 4,0 km/h (1 Bft) 0 min 2 min 7,6 km/h (2 Bft)
18.12.2011 00:50 11,1 C 2,0 C 0,0 UV-I 0,0 C 53 % 91 % 0 % 1004,1 hPa 0,1 l/m 3,2 km/h (1 Bft) 0 min 2 min 5,2 km/h (1 Bft)
18.12.2011 00:52 10,9 C 2,0 C 0,0 UV-I 0,0 C 53 % 91 % 0 % 1004,1 hPa 0,0 l/m 4,0 km/h (1 Bft) 0 min 2 min 5,6 km/h (1 Bft)
18.12.2011 00:54 11,1 C 2,0 C 0,0 UV-I 0,0 C 53 % 91 % 0 % 1004,1 hPa 0,0 l/m 4,4 km/h (1 Bft) 0 min 2 min 5,6 km/h (1 Bft)
18.12.2011 00:56 11,1 C 2,0 C 0,0 UV-I 0,0 C 54 % 91 % 0 % 1004,1 hPa 0,1 l/m 4,0 km/h (1 Bft) 0 min 2 min 4,4 km/h (1 Bft)
18.12.2011 00:58 11,1 C 2,0 C 0,0 UV-I 0,0 C 54 % 91 % 0 % 1004,1 hPa 0,0 l/m 2,8 km/h (1 Bft) 0 min 2 min 0,0 km/h (0 Bft)
18.12.2011 01:00 10,9 C 1,9 C 0,0 UV-I 0,0 C 54 % 91 % 0 % 1004,1 hPa 0,1 l/m 3,2 km/h (1 Bft) 0 min 2 min 0,0 km/h (0 Bft)
18.12.2011 01:02 11,1 C 1,9 C 0,0 UV-I 0,0 C 54 % 91 % 0 % 1004,1 hPa 0,0 l/m 2,4 km/h (1 Bft) 0 min 2 min 4,4 km/h (1 Bft)
18.12.2011 01:04 11,1 C 2,0 C 0,0 UV-I 0,0 C 54 % 91 % 0 % 1004,0 hPa 0,0 l/m 2,0 km/h (1 Bft) 0 min 2 min 9,6 km/h (2 Bft)
18.12.2011 01:06 11,1 C 2,0 C 0,0 UV-I 0,0 C 54 % 91 % 0 % 1004,0 hPa 0,1 l/m 2,0 km/h (1 Bft) 0 min 2 min 5,2 km/h (1 Bft)
18.12.2011 01:08 11,1 C 2,0 C 0,0 UV-I 0,0 C 54 % 91 % 0 % 1004,0 hPa 0,0 l/m 2,4 km/h (1 Bft) 0 min 2 min 12,0 km/h (2 Bft)
18.12.2011 01:10 11,1 C 1,9 C 0,0 UV-I 0,0 C 54 % 91 % 0 % 1004,0 hPa 0,0 l/m 2,8 km/h (1 Bft) 0 min 2 min 12,0 km/h (2 Bft)
18.12.2011 01:12 11,1 C 2,0 C 0,0 UV-I 0,0 C 54 % 91 % 0 % 1004,0 hPa 0,1 l/m 4,4 km/h (1 Bft) 0 min 2 min 21,7 km/h (4 Bft)
18.12.2011 01:14 11,1 C 1,9 C 0,0 UV-I 0,0 C 54 % 91 % 0 % 1004,0 hPa 0,1 l/m 5,2 km/h (1 Bft) 0 min 2 min 10,4 km/h (2 Bft)
18.12.2011 01:16 11,1 C 1,9 C 0,0 UV-I 0,0 C 54 % 91 % 0 % 1004,0 hPa 0,0 l/m 5,2 km/h (1 Bft) 0 min 2 min 6,4 km/h (2 Bft)
18.12.2011 01:18 11,1 C 1,9 C 0,0 UV-I 0,0 C 53 % 91 % 0 % 1004,0 hPa 0,1 l/m 5,2 km/h (1 Bft) 0 min 2 min 5,2 km/h (1 Bft)
18.12.2011 01:20 11,1 C 1,9 C 0,0 UV-I 0,0 C 54 % 91 % 0 % 1004,0 hPa 0,1 l/m 4,8 km/h (1 Bft) 0 min 2 min 6,4 km/h (2 Bft)
18.12.2011 01:22 11,1 C 1,8 C 0,0 UV-I 0,0 C 54 % 91 % 0 % 1004,0 hPa 0,0 l/m 3,2 km/h (1 Bft) 0 min 2 min 6,4 km/h (2 Bft)
18.12.2011 01:24 11,1 C 1,9 C 0,0 UV-I 0,0 C 54 % 91 % 0 % 1003,8 hPa 0,0 l/m 2,8 km/h (1 Bft) 0 min 2 min 4,4 km/h (1 Bft)
18.12.2011 01:26 11,1 C 1,8 C 0,0 UV-I 0,0 C 54 % 91 % 0 % 1003,8 hPa 0,1 l/m 2,8 km/h (1 Bft) 0 min 2 min 7,6 km/h (2 Bft)
18.12.2011 01:28 11,1 C 1,9 C 0,0 UV-I 0,0 C 54 % 91 % 0 % 1003,8 hPa 0,0 l/m 2,4 km/h (1 Bft) 0 min 2 min 9,2 km/h (2 Bft)
18.12.2011 01:30 10,9 C 1,8 C 0,0 UV-I 0,0 C 54 % 91 % 0 % 1003,8 hPa 0,1 l/m 2,8 km/h (1 Bft) 0 min 2 min 9,2 km/h (2 Bft)
18.12.2011 01:32 10,9 C 1,8 C 0,0 UV-I 0,0 C 54 % 91 % 0 % 1003,8 hPa 0,0 l/m 3,2 km/h (1 Bft) 0 min 2 min 7,6 km/h (2 Bft)
18.12.2011 01:34 10,9 C 1,9 C 0,0 UV-I 0,0 C 54 % 91 % 0 % 1003,8 hPa 0,0 l/m 3,6 km/h (1 Bft) 0 min 2 min 7,6 km/h (2 Bft)
18.12.2011 01:36 10,9 C 1,9 C 0,0 UV-I 0,0 C 54 % 91 % 0 % 1003,8 hPa 0,0 l/m 4,0 km/h (1 Bft) 0 min 2 min 6,0 km/h (2 Bft)
18.12.2011 01:38 10,9 C 1,9 C 0,0 UV-I 0,0 C 54 % 91 % 0 % 1003,8 hPa 0,0 l/m 4,0 km/h (1 Bft) 0 min 0 min 5,6 km/h (1 Bft)
18.12.2011 01:40 10,9 C 1,9 C 0,0 UV-I 0,0 C 54 % 91 % 0 % 1003,8 hPa 0,0 l/m 4,0 km/h (1 Bft) 0 min 2 min 9,6 km/h (2 Bft)
18.12.2011 01:42 10,9 C 1,9 C 0,0 UV-I 0,0 C 54 % 91 % 0 % 1003,8 hPa 0,0 l/m 4,0 km/h (1 Bft) 0 min 2 min 9,6 km/h (2 Bft)
18.12.2011 01:44 10,9 C 1,9 C 0,0 UV-I 0,0 C 54 % 91 % 0 % 1004,0 hPa 0,0 l/m 4,0 km/h (1 Bft) 0 min 2 min 7,2 km/h (2 Bft)
18.12.2011 01:46 10,9 C 1,9 C 0,0 UV-I 0,0 C 54 % 91 % 0 % 1004,0 hPa 0,0 l/m 4,0 km/h (1 Bft) 0 min 2 min 6,4 km/h (2 Bft)
18.12.2011 01:48 10,9 C 1,9 C 0,0 UV-I 0,0 C 54 % 91 % 0 % 1004,0 hPa 0,1 l/m 3,6 km/h (1 Bft) 0 min 2 min 4,8 km/h (1 Bft)
18.12.2011 01:50 11,0 C 1,8 C 0,0 UV-I 0,0 C 54 % 91 % 0 % 1004,0 hPa 0,0 l/m 3,2 km/h (1 Bft) 0 min 2 min 0,0 km/h (0 Bft)
18.12.2011 01:52 10,9 C 1,9 C 0,0 UV-I 0,0 C 54 % 91 % 0 % 1004,0 hPa 0,0 l/m 3,2 km/h (1 Bft) 0 min 2 min 8,4 km/h (2 Bft)
18.12.2011 01:54 11,0 C 1,8 C 0,0 UV-I 0,0 C 54 % 91 % 0 % 1004,0 hPa 0,0 l/m 2,4 km/h (1 Bft) 0 min 2 min 8,4 km/h (2 Bft)
18.12.2011 01:56 11,0 C 1,9 C 0,0 UV-I 0,0 C 54 % 91 % 0 % 1004,0 hPa 0,0 l/m 2,4 km/h (1 Bft) 0 min 2 min 8,0 km/h (2 Bft)
18.12.2011 01:58 11,0 C 1,8 C 0,0 UV-I 0,0 C 54 % 91 % 0 % 1004,0 hPa 0,1 l/m 2,8 km/h (1 Bft) 0 min 2 min 12,4 km/h (3 Bft)
18.12.2011 02:00 11,0 C 1,9 C 0,0 UV-I 0,0 C 54 % 91 % 0 % 1004,0 hPa 0,0 l/m 3,2 km/h (1 Bft) 0 min 2 min 12,4 km/h (3 Bft)
18.12.2011 02:02 11,0 C 1,9 C 0,0 UV-I 0,0 C 54 % 91 % 0 % 1004,0 hPa 0,0 l/m 4,0 km/h (1 Bft) 0 min 2 min 4,4 km/h (1 Bft)
18.12.2011 02:04 11,0 C 1,9 C 0,0 UV-I 0,0 C 54 % 91 % 0 % 1004,1 hPa 0,0 l/m 4,0 km/h (1 Bft) 0 min 2 min 8,4 km/h (2 Bft)
18.12.2011 02:06 11,0 C 1,9 C 0,0 UV-I 0,0 C 54 % 91 % 0 % 1004,1 hPa 0,0 l/m 4,0 km/h (1 Bft) 0 min 2 min 4,4 km/h (1 Bft)
18.12.2011 02:08 11,0 C 2,0 C 0,0 UV-I 0,0 C 54 % 91 % 0 % 1004,1 hPa 0,0 l/m 3,6 km/h (1 Bft) 0 min 2 min 7,6 km/h (2 Bft)
18.12.2011 02:10 11,0 C 2,0 C 0,0 UV-I 0,0 C 54 % 92 % 0 % 1004,1 hPa 0,0 l/m 4,0 km/h (1 Bft) 0 min 2 min 12,0 km/h (2 Bft)
18.12.2011 02:12 11,0 C 2,0 C 0,0 UV-I 0,0 C 54 % 92 % 0 % 1004,1 hPa 0,0 l/m 4,0 km/h (1 Bft) 0 min 2 min 12,0 km/h (2 Bft)
18.12.2011 02:14 11,0 C 2,0 C 0,0 UV-I 0,0 C 54 % 92 % 0 % 1004,1 hPa 0,0 l/m 4,0 km/h (1 Bft) 0 min 2 min 6,4 km/h (2 Bft)
18.12.2011 02:16 11,0 C 2,0 C 0,0 UV-I 0,0 C 54 % 92 % 0 % 1004,1 hPa 0,0 l/m 4,0 km/h (1 Bft) 0 min 2 min 6,4 km/h (2 Bft)
18.12.2011 02:18 11,0 C 2,0 C 0,0 UV-I 0,0 C 54 % 92 % 0 % 1004,1 hPa 0,0 l/m 3,6 km/h (1 Bft) 0 min 2 min 4,4 km/h (1 Bft)
18.12.2011 02:20 11,0 C 2,0 C 0,0 UV-I 0,0 C 54 % 92 % 0 % 1004,1 hPa 0,0 l/m 2,4 km/h (1 Bft) 0 min 2 min 4,4 km/h (1 Bft)
18.12.2011 02:22 11,0 C 2,1 C 0,0 UV-I 0,0 C 54 % 92 % 0 % 1004,1 hPa 0,1 l/m 1,6 km/h (1 Bft) 0 min 2 min 6,0 km/h (2 Bft)
18.12.2011 02:24 11,0 C 2,1 C 0,0 UV-I 0,0 C 54 % 92 % 0 % 1004,2 hPa 0,0 l/m 1,2 km/h (1 Bft) 0 min 2 min 6,0 km/h (2 Bft)
18.12.2011 02:26 11,0 C 2,2 C 0,0 UV-I 0,0 C 54 % 92 % 0 % 1004,2 hPa 0,0 l/m 1,6 km/h (1 Bft) 0 min 2 min 4,4 km/h (1 Bft)
18.12.2011 02:28 11,0 C 2,2 C 0,0 UV-I 0,0 C 54 % 92 % 0 % 1004,2 hPa 0,0 l/m 1,2 km/h (1 Bft) 0 min 2 min 4,4 km/h (1 Bft)
18.12.2011 02:30 11,0 C 2,3 C 0,0 UV-I 0,0 C 55 % 92 % 0 % 1004,2 hPa 0,1 l/m 1,6 km/h (1 Bft) 0 min 2 min 0,0 km/h (0 Bft)
18.12.2011 02:32 11,0 C 2,2 C 0,0 UV-I 0,0 C 55 % 92 % 0 % 1004,2 hPa 0,0 l/m 2,0 km/h (1 Bft) 0 min 2 min 6,0 km/h (2 Bft)
18.12.2011 02:34 11,0 C 2,3 C 0,0 UV-I 0,0 C 55 % 92 % 0 % 1004,2 hPa 0,0 l/m 2,0 km/h (1 Bft) 0 min 2 min 6,0 km/h (2 Bft)
18.12.2011 02:36 11,0 C 2,3 C 0,0 UV-I 0,0 C 55 % 92 % 0 % 1004,2 hPa 0,0 l/m 2,4 km/h (1 Bft) 0 min 2 min 8,8 km/h (2 Bft)
18.12.2011 02:38 10,9 C 2,3 C 0,0 UV-I 0,0 C 55 % 92 % 0 % 1004,2 hPa 0,0 l/m 2,8 km/h (1 Bft) 0 min 2 min 8,8 km/h (2 Bft)
18.12.2011 02:40 11,0 C 2,4 C 0,0 UV-I 0,0 C 55 % 92 % 0 % 1004,2 hPa 0,0 l/m 2,8 km/h (1 Bft) 0 min 2 min 7,2 km/h (2 Bft)
18.12.2011 02:42 10,9 C 2,4 C 0,0 UV-I 0,0 C 55 % 92 % 0 % 1004,2 hPa 0,0 l/m 3,6 km/h (1 Bft) 0 min 2 min 7,2 km/h (2 Bft)
18.12.2011 02:44 10,9 C 2,4 C 0,0 UV-I 0,0 C 55 % 92 % 0 % 1004,0 hPa 0,0 l/m 3,6 km/h (1 Bft) 0 min 2 min 7,2 km/h (2 Bft)
18.12.2011 02:46 10,9 C 2,5 C 0,0 UV-I 0,0 C 55 % 92 % 0 % 1004,0 hPa 0,0 l/m 4,0 km/h (1 Bft) 0 min 2 min 7,6 km/h (2 Bft)
18.12.2011 02:48 10,9 C 2,5 C 0,0 UV-I 0,0 C 55 % 92 % 0 % 1004,0 hPa 0,0 l/m 3,2 km/h (1 Bft) 0 min 2 min 7,6 km/h (2 Bft)
18.12.2011 02:50 10,9 C 2,4 C 0,0 UV-I 0,0 C 55 % 92 % 0 % 1004,0 hPa 0,0 l/m 3,6 km/h (1 Bft) 0 min 2 min 12,0 km/h (2 Bft)
18.12.2011 02:52 10,9 C 2,4 C 0,0 UV-I 0,0 C 55 % 92 % 0 % 1004,0 hPa 0,0 l/m 3,6 km/h (1 Bft) 0 min 2 min 12,0 km/h (2 Bft)
18.12.2011 02:54 11,1 C 2,5 C 0,0 UV-I 0,0 C 55 % 92 % 0 % 1004,0 hPa 0,0 l/m 3,2 km/h (1 Bft) 0 min 2 min 5,2 km/h (1 Bft)
18.12.2011 02:56 10,9 C 2,5 C 0,0 UV-I 0,0 C 55 % 92 % 0 % 1004,0 hPa 0,0 l/m 2,4 km/h (1 Bft) 0 min 0 min 5,2 km/h (1 Bft)
18.12.2011 02:58 10,9 C 2,5 C 0,0 UV-I 0,0 C 55 % 92 % 0 % 1004,0 hPa 0,1 l/m 3,2 km/h (1 Bft) 0 min 0 min 10,0 km/h (2 Bft)
18.12.2011 03:00 11,1 C 2,5 C 0,0 UV-I 0,0 C 55 % 92 % 0 % 1004,0 hPa 0,0 l/m 3,6 km/h (1 Bft) 0 min 0 min 10,0 km/h (2 Bft)
18.12.2011 03:02 11,0 C 2,5 C 0,0 UV-I 0,0 C 55 % 92 % 0 % 1004,0 hPa 0,0 l/m 3,6 km/h (1 Bft) 0 min 0 min 4,4 km/h (1 Bft)
18.12.2011 03:04 11,1 C 2,6 C 0,0 UV-I 0,0 C 55 % 92 % 0 % 1003,9 hPa 0,0 l/m 4,0 km/h (1 Bft) 0 min 0 min 8,4 km/h (2 Bft)
18.12.2011 03:06 10,9 C 2,5 C 0,0 UV-I 0,0 C 55 % 92 % 0 % 1003,9 hPa 0,0 l/m 4,4 km/h (1 Bft) 0 min 0 min 10,0 km/h (2 Bft)
18.12.2011 03:08 11,1 C 2,6 C 0,0 UV-I 0,0 C 55 % 92 % 0 % 1003,9 hPa 0,0 l/m 4,4 km/h (1 Bft) 0 min 0 min 10,0 km/h (2 Bft)
18.12.2011 03:10 11,1 C 2,5 C 0,0 UV-I 0,0 C 55 % 92 % 0 % 1003,9 hPa 0,0 l/m 4,4 km/h (1 Bft) 0 min 0 min 8,4 km/h (2 Bft)
18.12.2011 03:12 11,1 C 2,5 C 0,0 UV-I 0,0 C 55 % 92 % 0 % 1003,9 hPa 0,0 l/m 4,4 km/h (1 Bft) 0 min 0 min 8,4 km/h (2 Bft)
18.12.2011 03:14 11,1 C 2,5 C 0,0 UV-I 0,0 C 55 % 92 % 0 % 1003,9 hPa 0,0 l/m 4,8 km/h (1 Bft) 0 min 0 min 8,4 km/h (2 Bft)
18.12.2011 03:16 11,1 C 2,6 C 0,0 UV-I 0,0 C 55 % 92 % 0 % 1003,9 hPa 0,0 l/m 5,2 km/h (1 Bft) 0 min 0 min 10,4 km/h (2 Bft)
18.12.2011 03:18 11,1 C 2,6 C 0,0 UV-I 0,0 C 55 % 92 % 0 % 1003,9 hPa 0,0 l/m 5,2 km/h (1 Bft) 0 min 0 min 10,4 km/h (2 Bft)
18.12.2011 03:20 11,1 C 2,6 C 0,0 UV-I 0,0 C 55 % 92 % 0 % 1003,9 hPa 0,0 l/m 5,6 km/h (1 Bft) 0 min 2 min 6,4 km/h (2 Bft)
18.12.2011 03:22 11,1 C 2,6 C 0,0 UV-I 0,0 C 55 % 92 % 0 % 1003,9 hPa 0,0 l/m 5,6 km/h (1 Bft) 0 min 2 min 5,2 km/h (1 Bft)
18.12.2011 03:24 11,1 C 2,5 C 0,0 UV-I 0,0 C 55 % 92 % 0 % 1004,1 hPa 0,0 l/m 6,0 km/h (2 Bft) 0 min 2 min 8,8 km/h (2 Bft)
18.12.2011 03:26 11,1 C 2,5 C 0,0 UV-I 0,0 C 55 % 92 % 0 % 1004,1 hPa 0,0 l/m 5,6 km/h (1 Bft) 0 min 2 min 8,8 km/h (2 Bft)
18.12.2011 03:28 11,1 C 2,5 C 0,0 UV-I 0,0 C 55 % 92 % 0 % 1004,1 hPa 0,0 l/m 4,8 km/h (1 Bft) 0 min 2 min 7,2 km/h (2 Bft)
18.12.2011 03:30 11,1 C 2,5 C 0,0 UV-I 0,0 C 55 % 92 % 0 % 1004,1 hPa 0,0 l/m 5,2 km/h (1 Bft) 0 min 0 min 13,7 km/h (3 Bft)
18.12.2011 03:32 11,1 C 2,5 C 0,0 UV-I 0,0 C 55 % 92 % 0 % 1004,1 hPa 0,0 l/m 6,0 km/h (2 Bft) 0 min 2 min 13,7 km/h (3 Bft)
18.12.2011 03:34 11,1 C 2,5 C 0,0 UV-I 0,0 C 55 % 92 % 0 % 1004,1 hPa 0,0 l/m 5,6 km/h (1 Bft) 0 min 0 min 6,0 km/h (2 Bft)
18.12.2011 03:36 11,1 C 2,5 C 0,0 UV-I 0,0 C 55 % 92 % 0 % 1004,1 hPa 0,0 l/m 5,6 km/h (1 Bft) 0 min 0 min 10,4 km/h (2 Bft)
18.12.2011 03:38 11,1 C 2,5 C 0,0 UV-I 0,0 C 55 % 92 % 0 % 1004,1 hPa 0,0 l/m 5,6 km/h (1 Bft) 0 min 0 min 10,4 km/h (2 Bft)
18.12.2011 03:40 11,1 C 2,5 C 0,0 UV-I 0,0 C 55 % 92 % 0 % 1004,1 hPa 0,0 l/m 5,2 km/h (1 Bft) 0 min 0 min 6,0 km/h (2 Bft)
18.12.2011 03:42 11,1 C 2,5 C 0,0 UV-I 0,0 C 55 % 92 % 0 % 1004,1 hPa 0,0 l/m 4,4 km/h (1 Bft) 0 min 2 min 5,6 km/h (1 Bft)
18.12.2011 03:44 11,1 C 2,5 C 0,0 UV-I 0,0 C 55 % 92 % 0 % 1004,3 hPa 0,0 l/m 2,4 km/h (1 Bft) 0 min 2 min 0,0 km/h (0 Bft)
18.12.2011 03:46 11,1 C 2,4 C 0,0 UV-I 0,0 C 55 % 92 % 0 % 1004,3 hPa 0,0 l/m 2,4 km/h (1 Bft) 0 min 0 min 0,0 km/h (0 Bft)
18.12.2011 03:48 11,1 C 2,5 C 0,0 UV-I 0,0 C 55 % 92 % 0 % 1004,3 hPa 0,0 l/m 1,6 km/h (1 Bft) 0 min 0 min 6,8 km/h (2 Bft)
18.12.2011 03:50 10,9 C 2,4 C 0,0 UV-I 0,0 C 55 % 92 % 0 % 1004,3 hPa 0,0 l/m 1,2 km/h (1 Bft) 0 min 0 min 6,8 km/h (2 Bft)
18.12.2011 03:52 10,9 C 2,4 C 0,0 UV-I 0,0 C 55 % 92 % 0 % 1004,3 hPa 0,0 l/m 1,6 km/h (1 Bft) 0 min 0 min 8,0 km/h (2 Bft)
18.12.2011 03:54 10,9 C 2,4 C 0,0 UV-I 0,0 C 55 % 92 % 0 % 1004,3 hPa 0,0 l/m 2,4 km/h (1 Bft) 0 min 0 min 8,0 km/h (2 Bft)
18.12.2011 03:56 10,9 C 2,4 C 0,0 UV-I 0,0 C 55 % 92 % 0 % 1004,3 hPa 0,0 l/m 2,8 km/h (1 Bft) 0 min 0 min 5,6 km/h (1 Bft)
18.12.2011 03:58 10,9 C 2,4 C 0,0 UV-I 0,0 C 55 % 92 % 0 % 1004,3 hPa 0,0 l/m 3,2 km/h (1 Bft) 0 min 0 min 8,0 km/h (2 Bft)
18.12.2011 04:00 10,9 C 2,5 C 0,0 UV-I 0,0 C 55 % 92 % 0 % 1004,3 hPa 0,0 l/m 3,2 km/h (1 Bft) 0 min 0 min 8,0 km/h (2 Bft)
18.12.2011 04:02 10,9 C 2,4 C 0,0 UV-I 0,0 C 55 % 92 % 0 % 1004,3 hPa 0,0 l/m 2,8 km/h (1 Bft) 0 min 0 min 4,8 km/h (1 Bft)
18.12.2011 04:04 10,9 C 2,4 C 0,0 UV-I 0,0 C 55 % 92 % 0 % 1004,1 hPa 0,0 l/m 2,4 km/h (1 Bft) 0 min 0 min 0,0 km/h (0 Bft)
18.12.2011 04:06 10,9 C 2,4 C 0,0 UV-I 0,0 C 55 % 92 % 0 % 1004,1 hPa 0,0 l/m 2,4 km/h (1 Bft) 0 min 0 min 8,8 km/h (2 Bft)
18.12.2011 04:08 10,9 C 2,5 C 0,0 UV-I 0,0 C 55 % 92 % 0 % 1004,1 hPa 0,0 l/m 2,8 km/h (1 Bft) 0 min 0 min 13,7 km/h (3 Bft)
18.12.2011 04:10 11,1 C 2,5 C 0,0 UV-I 0,0 C 55 % 92 % 0 % 1004,1 hPa 0,0 l/m 3,2 km/h (1 Bft) 0 min 0 min 13,7 km/h (3 Bft)
18.12.2011 04:12 10,9 C 2,5 C 0,0 UV-I 0,0 C 55 % 92 % 0 % 1004,1 hPa 0,0 l/m 3,2 km/h (1 Bft) 0 min 0 min 12,4 km/h (3 Bft)
18.12.2011 04:14 10,9 C 2,5 C 0,0 UV-I 0,0 C 55 % 92 % 0 % 1004,1 hPa 0,0 l/m 3,2 km/h (1 Bft) 0 min 0 min 6,4 km/h (2 Bft)
18.12.2011 04:16 10,9 C 2,5 C 0,0 UV-I 0,0 C 55 % 92 % 0 % 1004,1 hPa 0,0 l/m 2,8 km/h (1 Bft) 0 min 0 min 0,0 km/h (0 Bft)
18.12.2011 04:18 11,1 C 2,5 C 0,0 UV-I 0,0 C 55 % 92 % 0 % 1004,1 hPa 0,0 l/m 2,4 km/h (1 Bft) 0 min 2 min 0,0 km/h (0 Bft)
18.12.2011 04:20 11,1 C 2,5 C 0,0 UV-I 0,0 C 55 % 92 % 0 % 1004,1 hPa 0,0 l/m 2,0 km/h (1 Bft) 0 min 2 min 8,4 km/h (2 Bft)
18.12.2011 04:22 11,1 C 2,6 C 0,0 UV-I 0,0 C 55 % 92 % 0 % 1004,1 hPa 0,0 l/m 1,6 km/h (1 Bft) 0 min 2 min 8,4 km/h (2 Bft)
18.12.2011 04:24 11,1 C 2,6 C 0,0 UV-I 0,0 C 55 % 92 % 0 % 1004,3 hPa 0,0 l/m 2,0 km/h (1 Bft) 0 min 2 min 10,8 km/h (2 Bft)
18.12.2011 04:26 11,1 C 2,7 C 0,0 UV-I 0,0 C 56 % 92 % 0 % 1004,3 hPa 0,1 l/m 2,0 km/h (1 Bft) 0 min 0 min 10,8 km/h (2 Bft)
18.12.2011 04:28 11,1 C 2,7 C 0,0 UV-I 0,0 C 55 % 92 % 0 % 1004,3 hPa 0,0 l/m 2,8 km/h (1 Bft) 0 min 0 min 16,1 km/h (3 Bft)
18.12.2011 04:30 11,1 C 2,6 C 0,0 UV-I 0,0 C 55 % 92 % 0 % 1004,3 hPa 0,0 l/m 4,0 km/h (1 Bft) 0 min 0 min 16,1 km/h (3 Bft)
18.12.2011 04:32 11,1 C 2,6 C 0,0 UV-I 0,0 C 55 % 92 % 0 % 1004,3 hPa 0,0 l/m 3,2 km/h (1 Bft) 0 min 0 min 14,5 km/h (3 Bft)
18.12.2011 04:34 11,1 C 2,6 C 0,0 UV-I 0,0 C 55 % 92 % 0 % 1004,3 hPa 0,0 l/m 4,0 km/h (1 Bft) 0 min 0 min 10,8 km/h (2 Bft)
18.12.2011 04:36 11,1 C 2,7 C 0,0 UV-I 0,0 C 55 % 92 % 0 % 1004,3 hPa 0,0 l/m 4,8 km/h (1 Bft) 0 min 0 min 15,7 km/h (3 Bft)
18.12.2011 04:38 11,1 C 2,7 C 0,0 UV-I 0,0 C 55 % 92 % 0 % 1004,3 hPa 0,0 l/m 5,2 km/h (1 Bft) 0 min 0 min 15,7 km/h (3 Bft)
18.12.2011 04:40 11,1 C 2,6 C 0,0 UV-I 0,0 C 55 % 92 % 0 % 1004,3 hPa 0,0 l/m 5,6 km/h (1 Bft) 0 min 0 min 7,6 km/h (2 Bft)
18.12.2011 04:42 11,1 C 2,6 C 0,0 UV-I 0,0 C 55 % 92 % 0 % 1004,3 hPa 0,0 l/m 5,6 km/h (1 Bft) 0 min 0 min 8,8 km/h (2 Bft)
18.12.2011 04:44 11,2 C 2,5 C 0,0 UV-I 0,0 C 55 % 92 % 0 % 1004,1 hPa 0,0 l/m 6,0 km/h (2 Bft) 0 min 0 min 8,8 km/h (2 Bft)
18.12.2011 04:46 11,1 C 2,5 C 0,0 UV-I 0,0 C 55 % 92 % 0 % 1004,1 hPa 0,0 l/m 5,6 km/h (1 Bft) 0 min 0 min 11,2 km/h (2 Bft)
18.12.2011 04:48 11,1 C 2,5 C 0,0 UV-I 0,0 C 55 % 92 % 0 % 1004,1 hPa 0,0 l/m 4,8 km/h (1 Bft) 0 min 0 min 12,4 km/h (3 Bft)
18.12.2011 04:50 11,2 C 2,6 C 0,0 UV-I 0,0 C 55 % 92 % 0 % 1004,1 hPa 0,0 l/m 5,6 km/h (1 Bft) 0 min 0 min 12,4 km/h (3 Bft)
18.12.2011 04:52 11,1 C 2,5 C 0,0 UV-I 0,0 C 55 % 92 % 0 % 1004,1 hPa 0,0 l/m 5,6 km/h (1 Bft) 0 min 0 min 8,8 km/h (2 Bft)
18.12.2011 04:54 11,1 C 2,5 C 0,0 UV-I 0,0 C 55 % 92 % 0 % 1004,1 hPa 0,0 l/m 5,2 km/h (1 Bft) 0 min 2 min 16,9 km/h (3 Bft)
18.12.2011 04:56 11,1 C 2,5 C 0,0 UV-I 0,0 C 55 % 92 % 0 % 1004,1 hPa 0,0 l/m 6,4 km/h (2 Bft) 0 min 2 min 16,9 km/h (3 Bft)
18.12.2011 04:58 11,1 C 2,5 C 0,0 UV-I 0,0 C 55 % 92 % 0 % 1004,1 hPa 0,0 l/m 6,8 km/h (2 Bft) 0 min 2 min 19,7 km/h (3 Bft)
18.12.2011 05:00 11,1 C 2,5 C 0,0 UV-I 0,0 C 55 % 92 % 0 % 1004,1 hPa 0,0 l/m 6,0 km/h (2 Bft) 0 min 2 min 19,7 km/h (3 Bft)
18.12.2011 05:02 11,1 C 2,5 C 0,0 UV-I 0,0 C 55 % 92 % 0 % 1004,1 hPa 0,0 l/m 5,6 km/h (1 Bft) 0 min 2 min 13,3 km/h (3 Bft)
18.12.2011 05:04 11,1 C 2,4 C 0,0 UV-I 0,0 C 55 % 92 % 0 % 1004,2 hPa 0,0 l/m 5,6 km/h (1 Bft) 0 min 2 min 8,0 km/h (2 Bft)
18.12.2011 05:06 11,1 C 2,4 C 0,0 UV-I 0,0 C 55 % 92 % 0 % 1004,2 hPa 0,0 l/m 4,4 km/h (1 Bft) 0 min 2 min 10,8 km/h (2 Bft)
18.12.2011 05:08 11,1 C 2,4 C 0,0 UV-I 0,0 C 55 % 92 % 0 % 1004,2 hPa 0,0 l/m 3,6 km/h (1 Bft) 0 min 2 min 10,8 km/h (2 Bft)
18.12.2011 05:10 11,1 C 2,5 C 0,0 UV-I 0,0 C 55 % 92 % 0 % 1004,2 hPa 0,0 l/m 2,8 km/h (1 Bft) 0 min 2 min 5,2 km/h (1 Bft)
18.12.2011 05:12 11,2 C 2,4 C 0,0 UV-I 0,0 C 55 % 92 % 0 % 1004,2 hPa 0,1 l/m 3,2 km/h (1 Bft) 0 min 2 min 10,4 km/h (2 Bft)
18.12.2011 05:14 11,2 C 2,4 C 0,0 UV-I 0,0 C 55 % 92 % 0 % 1004,2 hPa 0,0 l/m 3,2 km/h (1 Bft) 0 min 2 min 10,4 km/h (2 Bft)
18.12.2011 05:16 11,1 C 2,4 C 0,0 UV-I 0,0 C 55 % 92 % 0 % 1004,2 hPa 0,0 l/m 4,0 km/h (1 Bft) 0 min 2 min 4,8 km/h (1 Bft)
18.12.2011 05:18 11,1 C 2,3 C 0,0 UV-I 0,0 C 55 % 92 % 0 % 1004,2 hPa 0,0 l/m 4,0 km/h (1 Bft) 0 min 2 min 6,0 km/h (2 Bft)
18.12.2011 05:20 11,2 C 2,3 C 0,0 UV-I 0,0 C 55 % 92 % 0 % 1004,2 hPa 0,0 l/m 4,0 km/h (1 Bft) 0 min 2 min 6,0 km/h (2 Bft)
18.12.2011 05:22 11,1 C 2,3 C 0,0 UV-I 0,0 C 55 % 92 % 0 % 1004,2 hPa 0,1 l/m 4,0 km/h (1 Bft) 0 min 2 min 0,0 km/h (0 Bft)
18.12.2011 05:24 11,1 C 2,3 C 0,0 UV-I 0,0 C 55 % 92 % 0 % 1004,9 hPa 0,0 l/m 3,2 km/h (1 Bft) 0 min 2 min 5,2 km/h (1 Bft)
18.12.2011 05:26 11,1 C 2,2 C 0,0 UV-I 0,0 C 55 % 92 % 0 % 1004,9 hPa 0,0 l/m 3,2 km/h (1 Bft) 0 min 2 min 10,8 km/h (2 Bft)
18.12.2011 05:28 11,1 C 2,1 C 0,0 UV-I 0,0 C 55 % 92 % 0 % 1004,9 hPa 0,1 l/m 3,6 km/h (1 Bft) 0 min 2 min 10,8 km/h (2 Bft)
18.12.2011 05:30 11,1 C 2,1 C 0,0 UV-I 0,0 C 55 % 92 % 0 % 1004,9 hPa 0,0 l/m 3,6 km/h (1 Bft) 0 min 2 min 8,8 km/h (2 Bft)
18.12.2011 05:32 11,2 C 2,0 C 0,0 UV-I 0,0 C 55 % 92 % 0 % 1004,9 hPa 0,0 l/m 3,6 km/h (1 Bft) 0 min 2 min 8,8 km/h (2 Bft)
18.12.2011 05:34 11,1 C 2,0 C 0,0 UV-I 0,0 C 55 % 92 % 0 % 1004,9 hPa 0,0 l/m 4,0 km/h (1 Bft) 0 min 2 min 8,4 km/h (2 Bft)
18.12.2011 05:36 11,1 C 2,0 C 0,0 UV-I 0,0 C 55 % 92 % 0 % 1004,9 hPa 0,0 l/m 4,0 km/h (1 Bft) 0 min 2 min 4,8 km/h (1 Bft)
18.12.2011 05:38 11,1 C 2,0 C 0,0 UV-I 0,0 C 55 % 92 % 0 % 1004,9 hPa 0,0 l/m 3,6 km/h (1 Bft) 0 min 2 min 6,8 km/h (2 Bft)
18.12.2011 05:40 11,1 C 2,1 C 0,0 UV-I 0,0 C 55 % 92 % 0 % 1004,9 hPa 0,1 l/m 2,8 km/h (1 Bft) 0 min 2 min 6,8 km/h (2 Bft)
18.12.2011 05:42 11,1 C 2,0 C 0,0 UV-I 0,0 C 55 % 92 % 0 % 1004,9 hPa 0,0 l/m 2,4 km/h (1 Bft) 0 min 2 min 6,0 km/h (2 Bft)
18.12.2011 05:44 11,1 C 2,0 C 0,0 UV-I 0,0 C 55 % 92 % 0 % 1004,7 hPa 0,0 l/m 2,4 km/h (1 Bft) 0 min 2 min 6,0 km/h (2 Bft)
18.12.2011 05:46 11,1 C 2,1 C 0,0 UV-I 0,0 C 55 % 92 % 0 % 1004,7 hPa 0,0 l/m 2,0 km/h (1 Bft) 0 min 2 min 5,6 km/h (1 Bft)
18.12.2011 05:48 11,2 C 2,1 C 0,0 UV-I 0,0 C 55 % 92 % 0 % 1004,7 hPa 0,0 l/m 1,6 km/h (1 Bft) 0 min 2 min 0,0 km/h (0 Bft)
18.12.2011 05:50 11,1 C 2,0 C 0,0 UV-I 0,0 C 55 % 92 % 0 % 1004,7 hPa 0,0 l/m 1,6 km/h (1 Bft) 0 min 2 min 5,2 km/h (1 Bft)
18.12.2011 05:52 11,2 C 2,0 C 0,0 UV-I 0,0 C 55 % 92 % 0 % 1004,7 hPa 0,0 l/m 2,0 km/h (1 Bft) 0 min 0 min 5,2 km/h (1 Bft)
18.12.2011 05:54 11,2 C 2,0 C 0,0 UV-I 0,0 C 55 % 92 % 0 % 1004,7 hPa 0,0 l/m 1,6 km/h (1 Bft) 0 min 0 min 0,0 km/h (0 Bft)
18.12.2011 05:56 11,2 C 2,0 C 0,0 UV-I 0,0 C 55 % 92 % 0 % 1004,7 hPa 0,0 l/m 0,8 km/h (0 Bft) 0 min 2 min 0,0 km/h (0 Bft)
18.12.2011 05:58 11,2 C 2,0 C 0,0 UV-I 0,0 C 55 % 92 % 0 % 1004,7 hPa 0,0 l/m 1,2 km/h (1 Bft) 0 min 2 min 4,4 km/h (1 Bft)
18.12.2011 06:00 11,2 C 2,0 C 0,0 UV-I 0,0 C 55 % 92 % 0 % 1004,7 hPa 0,0 l/m 1,2 km/h (1 Bft) 0 min 2 min 8,4 km/h (2 Bft)
18.12.2011 06:02 11,2 C 2,0 C 0,0 UV-I 0,0 C 55 % 92 % 0 % 1004,7 hPa 0,1 l/m 1,2 km/h (1 Bft) 0 min 2 min 8,4 km/h (2 Bft)
18.12.2011 06:04 11,2 C 1,9 C 0,0 UV-I 0,0 C 55 % 92 % 0 % 1004,9 hPa 0,0 l/m 2,0 km/h (1 Bft) 0 min 2 min 7,6 km/h (2 Bft)
18.12.2011 06:06 11,2 C 1,9 C 0,0 UV-I 0,0 C 55 % 92 % 0 % 1004,9 hPa 0,0 l/m 2,4 km/h (1 Bft) 0 min 2 min 7,6 km/h (2 Bft)
18.12.2011 06:08 11,2 C 1,9 C 0,0 UV-I 0,0 C 55 % 92 % 0 % 1004,9 hPa 0,2 l/m 2,4 km/h (1 Bft) 0 min 2 min 6,0 km/h (2 Bft)
18.12.2011 06:10 11,2 C 1,9 C 0,0 UV-I 0,0 C 55 % 92 % 0 % 1004,9 hPa 0,0 l/m 2,4 km/h (1 Bft) 0 min 2 min 6,0 km/h (2 Bft)
18.12.2011 06:12 11,2 C 1,8 C 0,0 UV-I 0,0 C 55 % 92 % 0 % 1004,9 hPa 0,0 l/m 2,4 km/h (1 Bft) 0 min 2 min 0,0 km/h (0 Bft)
18.12.2011 06:14 11,2 C 1,8 C 0,0 UV-I 0,0 C 55 % 92 % 0 % 1004,9 hPa 0,1 l/m 1,2 km/h (1 Bft) 0 min 2 min 0,0 km/h (0 Bft)
18.12.2011 06:16 11,2 C 1,9 C 0,0 UV-I 0,0 C 55 % 92 % 0 % 1004,9 hPa 0,0 l/m 1,2 km/h (1 Bft) 0 min 2 min 8,0 km/h (2 Bft)
18.12.2011 06:18 11,2 C 1,9 C 0,0 UV-I 0,0 C 55 % 92 % 0 % 1004,9 hPa 0,0 l/m 1,2 km/h (1 Bft) 0 min 2 min 8,0 km/h (2 Bft)
18.12.2011 06:20 11,2 C 1,9 C 0,0 UV-I 0,0 C 55 % 92 % 0 % 1004,9 hPa 0,1 l/m 1,2 km/h (1 Bft) 0 min 2 min 4,4 km/h (1 Bft)
18.12.2011 06:22 11,2 C 1,9 C 0,0 UV-I 0,0 C 55 % 92 % 0 % 1004,9 hPa 0,0 l/m 1,6 km/h (1 Bft) 0 min 2 min 4,4 km/h (1 Bft)
18.12.2011 06:24 11,2 C 1,9 C 0,0 UV-I 0,0 C 55 % 92 % 0 % 1005,3 hPa 0,0 l/m 2,0 km/h (1 Bft) 0 min 2 min 5,2 km/h (1 Bft)
18.12.2011 06:26 11,2 C 1,9 C 0,0 UV-I 0,0 C 55 % 92 % 0 % 1005,3 hPa 0,0 l/m 2,0 km/h (1 Bft) 0 min 2 min 5,2 km/h (1 Bft)
18.12.2011 06:28 11,2 C 1,9 C 0,0 UV-I 0,0 C 55 % 92 % 0 % 1005,3 hPa 0,1 l/m 1,6 km/h (1 Bft) 0 min 2 min 0,0 km/h (0 Bft)
18.12.2011 06:30 11,2 C 1,8 C 0,0 UV-I 0,0 C 55 % 92 % 0 % 1005,3 hPa 0,0 l/m 2,0 km/h (1 Bft) 0 min 2 min 8,4 km/h (2 Bft)
18.12.2011 06:32 11,2 C 1,9 C 0,0 UV-I 0,0 C 55 % 92 % 0 % 1005,3 hPa 0,0 l/m 2,0 km/h (1 Bft) 0 min 2 min 8,4 km/h (2 Bft)
18.12.2011 06:34 11,1 C 1,8 C 0,0 UV-I 0,0 C 55 % 92 % 0 % 1005,3 hPa 0,0 l/m 2,0 km/h (1 Bft) 0 min 2 min 4,0 km/h (1 Bft)
18.12.2011 06:36 11,1 C 1,8 C 0,0 UV-I 0,0 C 55 % 92 % 0 % 1005,3 hPa 0,0 l/m 3,6 km/h (1 Bft) 0 min 2 min 12,8 km/h (3 Bft)
18.12.2011 06:38 11,1 C 1,9 C 0,0 UV-I 0,0 C 55 % 92 % 0 % 1005,3 hPa 0,1 l/m 4,0 km/h (1 Bft) 0 min 2 min 12,8 km/h (3 Bft)
18.12.2011 06:40 11,1 C 1,8 C 0,0 UV-I 0,0 C 55 % 92 % 0 % 1005,3 hPa 0,1 l/m 4,0 km/h (1 Bft) 0 min 2 min 9,6 km/h (2 Bft)
18.12.2011 06:42 11,1 C 1,7 C 0,0 UV-I 0,0 C 55 % 92 % 0 % 1005,3 hPa 0,0 l/m 4,4 km/h (1 Bft) 0 min 2 min 13,7 km/h (3 Bft)
18.12.2011 06:44 11,1 C 1,6 C 0,0 UV-I 0,0 C 55 % 92 % 0 % 1005,6 hPa 0,0 l/m 4,4 km/h (1 Bft) 0 min 2 min 13,7 km/h (3 Bft)
18.12.2011 06:46 11,1 C 1,6 C 0,0 UV-I 0,0 C 55 % 92 % 0 % 1005,6 hPa 0,0 l/m 3,6 km/h (1 Bft) 0 min 2 min 10,0 km/h (2 Bft)
18.12.2011 06:48 11,1 C 1,5 C 0,0 UV-I 0,0 C 55 % 92 % 0 % 1005,6 hPa 0,0 l/m 2,8 km/h (1 Bft) 0 min 2 min 5,2 km/h (1 Bft)
18.12.2011 06:50 11,1 C 1,5 C 0,0 UV-I 0,0 C 55 % 92 % 0 % 1005,6 hPa 0,0 l/m 2,0 km/h (1 Bft) 0 min 2 min 5,2 km/h (1 Bft)
18.12.2011 06:52 11,1 C 1,3 C 0,0 UV-I 0,0 C 55 % 92 % 0 % 1005,6 hPa 0,0 l/m 1,6 km/h (1 Bft) 0 min 0 min 5,6 km/h (1 Bft)
18.12.2011 06:54 11,1 C 1,3 C 0,0 UV-I 0,0 C 55 % 92 % 0 % 1005,6 hPa 0,0 l/m 1,2 km/h (1 Bft) 0 min 0 min 5,6 km/h (1 Bft)
18.12.2011 06:56 11,1 C 1,2 C 0,0 UV-I 0,0 C 55 % 92 % 0 % 1005,6 hPa 0,0 l/m 0,8 km/h (0 Bft) 0 min 0 min 0,0 km/h (0 Bft)
18.12.2011 06:58 11,1 C 1,2 C 0,0 UV-I 0,0 C 54 % 92 % 0 % 1005,6 hPa 0,0 l/m 1,2 km/h (1 Bft) 0 min 0 min 6,4 km/h (2 Bft)
18.12.2011 07:00 11,1 C 1,2 C 0,0 UV-I 0,0 C 54 % 92 % 0 % 1005,6 hPa 0,1 l/m 1,2 km/h (1 Bft) 0 min 0 min 6,4 km/h (2 Bft)
18.12.2011 07:02 11,1 C 1,2 C 0,0 UV-I 0,0 C 54 % 92 % 0 % 1005,6 hPa 0,0 l/m 2,4 km/h (1 Bft) 0 min 0 min 9,2 km/h (2 Bft)
18.12.2011 07:04 11,1 C 1,1 C 0,0 UV-I 0,0 C 54 % 92 % 0 % 1005,6 hPa 0,0 l/m 3,2 km/h (1 Bft) 0 min 0 min 6,0 km/h (2 Bft)
18.12.2011 07:06 11,1 C 1,1 C 0,0 UV-I 0,0 C 54 % 92 % 0 % 1005,6 hPa 0,0 l/m 3,2 km/h (1 Bft) 0 min 0 min 6,0 km/h (2 Bft)
18.12.2011 07:08 11,2 C 1,1 C 0,0 UV-I 0,0 C 54 % 92 % 0 % 1005,6 hPa 0,1 l/m 3,6 km/h (1 Bft) 0 min 2 min 6,0 km/h (2 Bft)
18.12.2011 07:10 11,2 C 1,0 C 0,0 UV-I 0,0 C 54 % 92 % 0 % 1005,6 hPa 0,0 l/m 3,6 km/h (1 Bft) 0 min 2 min 5,6 km/h (1 Bft)
18.12.2011 07:12 11,1 C 1,0 C 0,0 UV-I 0,0 C 54 % 92 % 0 % 1005,6 hPa 0,0 l/m 3,2 km/h (1 Bft) 0 min 2 min 5,6 km/h (1 Bft)
18.12.2011 07:14 11,2 C 1,1 C 0,0 UV-I 0,0 C 54 % 92 % 0 % 1005,6 hPa 0,0 l/m 2,0 km/h (1 Bft) 0 min 2 min 4,0 km/h (1 Bft)
18.12.2011 07:16 11,2 C 1,1 C 0,0 UV-I 0,0 C 54 % 92 % 0 % 1005,6 hPa 0,0 l/m 1,6 km/h (1 Bft) 0 min 2 min 0,0 km/h (0 Bft)
18.12.2011 07:18 11,2 C 1,0 C 0,0 UV-I 0,0 C 54 % 92 % 0 % 1005,6 hPa 0,0 l/m 1,2 km/h (1 Bft) 0 min 2 min 0,0 km/h (0 Bft)
18.12.2011 07:20 11,1 C 1,0 C 0,0 UV-I 0,0 C 54 % 92 % 0 % 1005,6 hPa 0,1 l/m 1,2 km/h (1 Bft) 0 min 2 min 7,2 km/h (2 Bft)
18.12.2011 07:22 11,2 C 1,0 C 0,0 UV-I 0,0 C 54 % 92 % 0 % 1005,6 hPa 0,0 l/m 0,8 km/h (0 Bft) 0 min 2 min 7,2 km/h (2 Bft)
18.12.2011 07:24 11,2 C 1,1 C 0,0 UV-I 0,0 C 54 % 92 % 0 % 1005,6 hPa 0,0 l/m 0,4 km/h (0 Bft) 0 min 2 min 0,0 km/h (0 Bft)
18.12.2011 07:26 11,2 C 1,0 C 0,0 UV-I 0,0 C 54 % 92 % 0 % 1005,6 hPa 0,0 l/m 0,4 km/h (0 Bft) 0 min 2 min 0,0 km/h (0 Bft)
18.12.2011 07:28 11,2 C 1,0 C 0,0 UV-I 0,0 C 54 % 92 % 0 % 1005,6 hPa 0,0 l/m 0,8 km/h (0 Bft) 0 min 2 min 4,0 km/h (1 Bft)
18.12.2011 07:30 11,2 C 1,0 C 0,0 UV-I 0,0 C 54 % 92 % 0 % 1005,6 hPa 0,0 l/m 1,2 km/h (1 Bft) 0 min 2 min 4,0 km/h (1 Bft)
18.12.2011 07:32 11,2 C 1,1 C 0,0 UV-I 0,0 C 54 % 92 % 0 % 1005,6 hPa 0,0 l/m 1,2 km/h (1 Bft) 0 min 0 min 6,0 km/h (2 Bft)
18.12.2011 07:34 11,2 C 1,0 C 0,0 UV-I 0,0 C 54 % 93 % 0 % 1005,6 hPa 0,0 l/m 2,0 km/h (1 Bft) 0 min 0 min 6,0 km/h (2 Bft)
18.12.2011 07:36 11,2 C 1,1 C 0,0 UV-I 0,0 C 54 % 93 % 0 % 1005,6 hPa 0,0 l/m 2,0 km/h (1 Bft) 0 min 0 min 0,0 km/h (0 Bft)
18.12.2011 07:38 11,2 C 1,1 C 0,0 UV-I 0,0 C 54 % 93 % 0 % 1005,6 hPa 0,0 l/m 2,4 km/h (1 Bft) 0 min 0 min 4,0 km/h (1 Bft)
18.12.2011 07:40 11,2 C 1,1 C 0,0 UV-I 0,0 C 54 % 93 % 0 % 1005,6 hPa 0,0 l/m 2,8 km/h (1 Bft) 0 min 0 min 6,8 km/h (2 Bft)
18.12.2011 07:42 11,2 C 1,1 C 0,0 UV-I 0,0 C 54 % 93 % 0 % 1005,6 hPa 0,1 l/m 2,8 km/h (1 Bft) 0 min 0 min 6,8 km/h (2 Bft)
18.12.2011 07:44 11,1 C 1,1 C 0,0 UV-I 0,0 C 54 % 93 % 0 % 1006,1 hPa 0,0 l/m 2,4 km/h (1 Bft) 0 min 0 min 4,0 km/h (1 Bft)
18.12.2011 07:46 11,2 C 1,1 C 0,0 UV-I 0,0 C 54 % 93 % 0 % 1006,1 hPa 0,0 l/m 3,2 km/h (1 Bft) 0 min 0 min 10,8 km/h (2 Bft)
18.12.2011 07:48 11,2 C 1,2 C 0,0 UV-I 0,0 C 54 % 93 % 0 % 1006,1 hPa 0,0 l/m 3,2 km/h (1 Bft) 0 min 0 min 10,8 km/h (2 Bft)
18.12.2011 07:50 11,2 C 1,2 C 0,0 UV-I 0,0 C 54 % 93 % 0 % 1006,1 hPa 0,0 l/m 3,2 km/h (1 Bft) 0 min 0 min 8,8 km/h (2 Bft)
18.12.2011 07:52 11,2 C 1,2 C 0,0 UV-I 0,0 C 54 % 93 % 0 % 1006,1 hPa 0,0 l/m 2,8 km/h (1 Bft) 0 min 0 min 4,8 km/h (1 Bft)
18.12.2011 07:54 11,2 C 1,2 C 0,0 UV-I 0,0 C 54 % 93 % 0 % 1006,1 hPa 0,0 l/m 3,2 km/h (1 Bft) 0 min 0 min 5,6 km/h (1 Bft)
18.12.2011 07:56 11,2 C 1,2 C 0,0 UV-I 0,0 C 54 % 93 % 0 % 1006,1 hPa 0,0 l/m 2,4 km/h (1 Bft) 0 min 0 min 5,6 km/h (1 Bft)
18.12.2011 07:58 11,2 C 1,2 C 0,0 UV-I 0,0 C 54 % 93 % 0 % 1006,1 hPa 0,0 l/m 2,0 km/h (1 Bft) 0 min 0 min 0,0 km/h (0 Bft)
18.12.2011 08:00 11,2 C 1,3 C 0,0 UV-I 0,0 C 54 % 93 % 0 % 1006,1 hPa 0,0 l/m 1,6 km/h (1 Bft) 0 min 0 min 0,0 km/h (0 Bft)
18.12.2011 08:02 11,2 C 1,3 C 0,0 UV-I 0,0 C 54 % 93 % 0 % 1006,1 hPa 0,0 l/m 1,6 km/h (1 Bft) 0 min 0 min 0,0 km/h (0 Bft)
18.12.2011 08:04 11,2 C 1,2 C 0,0 UV-I 0,0 C 54 % 93 % 0 % 1006,1 hPa 0,0 l/m 0,8 km/h (0 Bft) 0 min 0 min 4,4 km/h (1 Bft)
18.12.2011 08:06 11,2 C 1,2 C 0,0 UV-I 0,0 C 54 % 93 % 0 % 1006,1 hPa 0,0 l/m 1,2 km/h (1 Bft) 0 min 0 min 8,0 km/h (2 Bft)
18.12.2011 08:08 11,2 C 1,2 C 0,0 UV-I 0,0 C 54 % 93 % 0 % 1006,1 hPa 0,0 l/m 2,0 km/h (1 Bft) 0 min 0 min 8,0 km/h (2 Bft)
18.12.2011 08:10 11,2 C 1,2 C 0,0 UV-I 0,0 C 54 % 93 % 0 % 1006,1 hPa 0,0 l/m 2,8 km/h (1 Bft) 0 min 0 min 16,1 km/h (3 Bft)
18.12.2011 08:12 11,2 C 1,2 C 0,0 UV-I 0,0 C 54 % 93 % 0 % 1006,1 hPa 0,0 l/m 3,2 km/h (1 Bft) 0 min 0 min 16,1 km/h (3 Bft)
18.12.2011 08:14 11,2 C 1,2 C 0,0 UV-I 0,0 C 54 % 93 % 0 % 1006,1 hPa 0,0 l/m 3,6 km/h (1 Bft) 0 min 0 min 5,6 km/h (1 Bft)
18.12.2011 08:16 11,2 C 1,3 C 0,0 UV-I 0,0 C 54 % 93 % 0 % 1006,1 hPa 0,0 l/m 3,6 km/h (1 Bft) 0 min 0 min 5,2 km/h (1 Bft)
18.12.2011 08:18 11,1 C 1,3 C 0,0 UV-I 0,0 C 54 % 93 % 0 % 1006,1 hPa 0,0 l/m 4,0 km/h (1 Bft) 0 min 0 min 12,8 km/h (3 Bft)
18.12.2011 08:20 11,1 C 1,3 C 0,0 UV-I 0,0 C 54 % 93 % 0 % 1006,1 hPa 0,0 l/m 4,0 km/h (1 Bft) 0 min 0 min 12,8 km/h (3 Bft)
18.12.2011 08:22 11,1 C 1,3 C 0,0 UV-I 0,0 C 54 % 93 % 0 % 1006,1 hPa 0,1 l/m 3,2 km/h (1 Bft) 0 min 0 min 8,0 km/h (2 Bft)
18.12.2011 08:24 11,1 C 1,3 C 0,0 UV-I 0,0 C 54 % 93 % 0 % 1006,8 hPa 0,0 l/m 4,0 km/h (1 Bft) 0 min 0 min 8,8 km/h (2 Bft)
18.12.2011 08:26 11,1 C 1,3 C 0,0 UV-I 0,0 C 54 % 93 % 0 % 1006,8 hPa 0,0 l/m 4,4 km/h (1 Bft) 0 min 0 min 8,8 km/h (2 Bft)
18.12.2011 08:28 11,1 C 1,5 C 0,0 UV-I 0,0 C 54 % 93 % 0 % 1006,8 hPa 0,0 l/m 4,4 km/h (1 Bft) 0 min 0 min 6,0 km/h (2 Bft)
18.12.2011 08:30 11,1 C 1,5 C 0,0 UV-I 0,0 C 54 % 93 % 0 % 1006,8 hPa 0,0 l/m 3,6 km/h (1 Bft) 0 min 0 min 4,0 km/h (1 Bft)
18.12.2011 08:32 11,1 C 1,5 C 0,0 UV-I 0,0 C 54 % 93 % 0 % 1006,8 hPa 0,0 l/m 4,0 km/h (1 Bft) 0 min 0 min 7,2 km/h (2 Bft)
18.12.2011 08:34 11,1 C 1,5 C 0,0 UV-I 0,0 C 54 % 93 % 0 % 1006,8 hPa 0,0 l/m 4,0 km/h (1 Bft) 0 min 0 min 9,6 km/h (2 Bft)
18.12.2011 08:36 11,1 C 1,5 C 0,0 UV-I 0,0 C 54 % 93 % 0 % 1006,8 hPa 0,0 l/m 3,6 km/h (1 Bft) 0 min 0 min 9,6 km/h (2 Bft)
18.12.2011 08:38 11,1 C 1,4 C 0,0 UV-I 0,0 C 54 % 93 % 0 % 1006,8 hPa 0,0 l/m 3,6 km/h (1 Bft) 0 min 0 min 5,2 km/h (1 Bft)
18.12.2011 08:40 11,1 C 1,5 C 0,0 UV-I 0,0 C 54 % 93 % 0 % 1006,8 hPa 0,0 l/m 3,2 km/h (1 Bft) 0 min 0 min 0,0 km/h (0 Bft)
18.12.2011 08:42 11,1 C 1,5 C 0,0 UV-I 0,0 C 54 % 93 % 0 % 1006,8 hPa 0,0 l/m 4,0 km/h (1 Bft) 0 min 0 min 10,4 km/h (2 Bft)
18.12.2011 08:44 11,1 C 1,5 C 0,0 UV-I 0,0 C 54 % 93 % 0 % 1006,9 hPa 0,0 l/m 3,6 km/h (1 Bft) 0 min 0 min 10,4 km/h (2 Bft)
18.12.2011 08:46 11,1 C 1,6 C 0,0 UV-I 0,0 C 54 % 93 % 0 % 1006,9 hPa 0,0 l/m 4,0 km/h (1 Bft) 0 min 0 min 6,8 km/h (2 Bft)
18.12.2011 08:48 11,1 C 1,6 C 0,0 UV-I 0,0 C 54 % 93 % 0 % 1006,9 hPa 0,0 l/m 4,4 km/h (1 Bft) 0 min 0 min 6,8 km/h (2 Bft)
18.12.2011 08:50 11,1 C 1,6 C 0,0 UV-I 0,0 C 54 % 93 % 0 % 1006,9 hPa 0,0 l/m 4,4 km/h (1 Bft) 0 min 0 min 5,2 km/h (1 Bft)
18.12.2011 08:52 10,9 C 1,6 C 0,0 UV-I 0,0 C 54 % 93 % 0 % 1006,9 hPa 0,0 l/m 4,4 km/h (1 Bft) 0 min 0 min 13,7 km/h (3 Bft)
18.12.2011 08:54 11,1 C 1,6 C 0,0 UV-I 0,0 C 54 % 93 % 0 % 1006,9 hPa 0,0 l/m 4,4 km/h (1 Bft) 0 min 0 min 13,7 km/h (3 Bft)
18.12.2011 08:56 10,9 C 1,6 C 0,0 UV-I 0,0 C 54 % 93 % 0 % 1006,9 hPa 0,0 l/m 4,8 km/h (1 Bft) 0 min 0 min 6,0 km/h (2 Bft)
18.12.2011 08:58 10,9 C 1,7 C 0,0 UV-I 0,0 C 54 % 93 % 0 % 1006,9 hPa 0,0 l/m 5,2 km/h (1 Bft) 0 min 0 min 7,6 km/h (2 Bft)
18.12.2011 09:00 10,9 C 1,7 C 0,0 UV-I 0,0 C 54 % 93 % 0 % 1006,9 hPa 0,0 l/m 5,2 km/h (1 Bft) 0 min 0 min 14,9 km/h (3 Bft)
18.12.2011 09:02 11,0 C 1,7 C 0,0 UV-I 0,0 C 54 % 93 % 0 % 1006,9 hPa 0,0 l/m 6,4 km/h (2 Bft) 0 min 0 min 14,9 km/h (3 Bft)
18.12.2011 09:06 11,0 C 1,7 C 0,0 UV-I 0,0 C 54 % 93 % 0 % 1007,3 hPa 0,0 l/m 7,2 km/h (2 Bft) 0 min 0 min 8,4 km/h (2 Bft)
18.12.2011 09:08 10,9 C 1,7 C 0,0 UV-I 0,0 C 54 % 93 % 0 % 1007,3 hPa 0,0 l/m 6,8 km/h (2 Bft) 0 min 0 min 11,2 km/h (2 Bft)
18.12.2011 09:10 10,9 C 1,7 C 0,0 UV-I 0,0 C 54 % 93 % 0 % 1007,3 hPa 0,0 l/m 6,4 km/h (2 Bft) 0 min 0 min 11,2 km/h (2 Bft)
18.12.2011 09:12 11,0 C 1,7 C 0,0 UV-I 0,0 C 54 % 93 % 0 % 1007,3 hPa 0,0 l/m 6,0 km/h (2 Bft) 0 min 0 min 22,5 km/h (4 Bft)
18.12.2011 09:14 10,9 C 1,6 C 0,0 UV-I 0,0 C 54 % 93 % 0 % 1007,3 hPa 0,0 l/m 5,2 km/h (1 Bft) 0 min 0 min 7,6 km/h (2 Bft)
18.12.2011 09:16 10,9 C 1,6 C 0,0 UV-I 0,0 C 54 % 93 % 0 % 1007,3 hPa 0,0 l/m 4,8 km/h (1 Bft) 0 min 0 min 6,8 km/h (2 Bft)
18.12.2011 09:18 11,1 C 1,6 C 0,0 UV-I 0,0 C 54 % 93 % 0 % 1007,3 hPa 0,0 l/m 3,6 km/h (1 Bft) 0 min 0 min 6,4 km/h (2 Bft)
18.12.2011 09:20 11,1 C 1,6 C 0,0 UV-I 0,0 C 54 % 93 % 0 % 1007,3 hPa 0,0 l/m 4,4 km/h (1 Bft) 0 min 0 min 6,4 km/h (2 Bft)
18.12.2011 09:22 11,1 C 1,6 C 0,0 UV-I 0,0 C 54 % 93 % 0 % 1007,3 hPa 0,0 l/m 4,4 km/h (1 Bft) 0 min 0 min 6,4 km/h (2 Bft)
18.12.2011 09:24 11,1 C 1,6 C 0,0 UV-I 0,0 C 54 % 93 % 0 % 1007,3 hPa 0,0 l/m 5,6 km/h (1 Bft) 0 min 0 min 15,7 km/h (3 Bft)
18.12.2011 09:26 11,2 C 1,6 C 0,0 UV-I 0,0 C 54 % 93 % 0 % 1007,3 hPa 0,0 l/m 5,6 km/h (1 Bft) 0 min 0 min 15,7 km/h (3 Bft)
18.12.2011 09:28 11,2 C 1,6 C 0,0 UV-I 0,0 C 54 % 93 % 0 % 1007,3 hPa 0,0 l/m 5,6 km/h (1 Bft) 0 min 0 min 10,4 km/h (2 Bft)
18.12.2011 09:30 11,2 C 1,6 C 0,0 UV-I 0,0 C 54 % 93 % 0 % 1007,3 hPa 0,0 l/m 5,6 km/h (1 Bft) 0 min 0 min 10,4 km/h (2 Bft)
18.12.2011 09:32 11,2 C 1,6 C 0,0 UV-I 0,0 C 54 % 93 % 0 % 1007,3 hPa 0,0 l/m 6,0 km/h (2 Bft) 0 min 0 min 11,6 km/h (2 Bft)
18.12.2011 09:34 11,2 C 1,7 C 0,0 UV-I 0,0 C 54 % 93 % 0 % 1007,3 hPa 0,0 l/m 6,8 km/h (2 Bft) 0 min 0 min 11,6 km/h (2 Bft)
18.12.2011 09:36 11,1 C 1,6 C 0,0 UV-I 0,0 C 54 % 93 % 0 % 1007,3 hPa 0,0 l/m 5,2 km/h (1 Bft) 0 min 0 min 10,8 km/h (2 Bft)
18.12.2011 09:38 11,1 C 1,7 C 0,0 UV-I 0,0 C 54 % 93 % 0 % 1007,3 hPa 0,0 l/m 5,6 km/h (1 Bft) 0 min 0 min 4,8 km/h (1 Bft)
18.12.2011 09:40 11,1 C 1,6 C 0,0 UV-I 0,0 C 54 % 93 % 0 % 1007,3 hPa 0,0 l/m 5,2 km/h (1 Bft) 0 min 0 min 9,6 km/h (2 Bft)
18.12.2011 09:42 11,1 C 1,6 C 0,0 UV-I 0,0 C 54 % 93 % 0 % 1007,3 hPa 0,0 l/m 5,2 km/h (1 Bft) 0 min 0 min 9,6 km/h (2 Bft)
18.12.2011 09:44 11,3 C 1,6 C 0,0 UV-I 0,0 C 54 % 93 % 0 % 1007,8 hPa 0,0 l/m 4,4 km/h (1 Bft) 0 min 0 min 6,0 km/h (2 Bft)
18.12.2011 09:46 11,2 C 1,6 C 0,0 UV-I 0,0 C 54 % 93 % 0 % 1007,8 hPa 0,0 l/m 3,6 km/h (1 Bft) 0 min 0 min 10,8 km/h (2 Bft)
18.12.2011 09:48 11,2 C 1,7 C 0,0 UV-I 0,0 C 54 % 93 % 0 % 1007,8 hPa 0,0 l/m 3,2 km/h (1 Bft) 0 min 0 min 15,7 km/h (3 Bft)
18.12.2011 09:50 11,4 C 1,6 C 0,0 UV-I 0,0 C 54 % 93 % 0 % 1007,8 hPa 0,0 l/m 2,8 km/h (1 Bft) 0 min 0 min 15,7 km/h (3 Bft)
18.12.2011 09:52 11,4 C 1,5 C 0,0 UV-I 0,0 C 54 % 93 % 0 % 1007,8 hPa 0,0 l/m 2,8 km/h (1 Bft) 0 min 0 min 0,0 km/h (0 Bft)
18.12.2011 09:54 11,4 C 1,5 C 0,0 UV-I 0,0 C 54 % 93 % 0 % 1007,8 hPa 0,0 l/m 2,8 km/h (1 Bft) 0 min 0 min 6,0 km/h (2 Bft)
18.12.2011 09:56 11,3 C 1,5 C 0,0 UV-I 0,0 C 54 % 93 % 0 % 1007,8 hPa 0,0 l/m 2,4 km/h (1 Bft) 0 min 0 min 6,0 km/h (2 Bft)
18.12.2011 09:58 11,4 C 1,5 C 0,0 UV-I 0,0 C 54 % 93 % 0 % 1007,8 hPa 0,0 l/m 3,2 km/h (1 Bft) 0 min 0 min 6,4 km/h (2 Bft)
18.12.2011 10:00 11,4 C 1,5 C 0,0 UV-I 0,0 C 54 % 93 % 0 % 1007,8 hPa 0,0 l/m 2,8 km/h (1 Bft) 0 min 0 min 7,2 km/h (2 Bft)
18.12.2011 10:02 11,3 C 1,4 C 0,0 UV-I 0,0 C 54 % 93 % 0 % 1007,8 hPa 0,0 l/m 3,6 km/h (1 Bft) 0 min 0 min 7,6 km/h (2 Bft)
18.12.2011 10:06 11,5 C 1,4 C 0,0 UV-I 0,0 C 54 % 93 % 0 % 1008,1 hPa 0,0 l/m 4,0 km/h (1 Bft) 0 min 0 min 8,0 km/h (2 Bft)
18.12.2011 10:08 11,5 C 1,4 C 0,0 UV-I 0,0 C 54 % 93 % 0 % 1008,1 hPa 0,0 l/m 4,8 km/h (1 Bft) 0 min 0 min 8,0 km/h (2 Bft)
18.12.2011 10:10 11,5 C 1,5 C 0,0 UV-I 0,0 C 54 % 93 % 0 % 1008,1 hPa 0,0 l/m 4,8 km/h (1 Bft) 0 min 0 min 8,0 km/h (2 Bft)
18.12.2011 10:12 11,4 C 1,5 C 0,0 UV-I 0,0 C 54 % 93 % 0 % 1008,1 hPa 0,0 l/m 4,8 km/h (1 Bft) 0 min 0 min 16,9 km/h (3 Bft)
18.12.2011 10:14 11,4 C 1,5 C 0,0 UV-I 0,0 C 54 % 93 % 0 % 1008,1 hPa 0,0 l/m 6,0 km/h (2 Bft) 0 min 0 min 16,9 km/h (3 Bft)
18.12.2011 10:16 11,6 C 1,5 C 0,0 UV-I 0,0 C 54 % 93 % 0 % 1008,1 hPa 0,0 l/m 6,4 km/h (2 Bft) 0 min 0 min 16,1 km/h (3 Bft)
18.12.2011 10:18 11,4 C 1,6 C 0,0 UV-I 0,3 C 54 % 93 % 9 % 1008,1 hPa 0,0 l/m 5,6 km/h (1 Bft) 0 min 0 min 4,4 km/h (1 Bft)
18.12.2011 10:20 11,6 C 1,6 C 0,0 UV-I 0,8 C 54 % 93 % 23 % 1008,1 hPa 0,0 l/m 5,2 km/h (1 Bft) 0 min 0 min 8,0 km/h (2 Bft)
18.12.2011 10:22 11,6 C 1,6 C 0,0 UV-I 1,1 C 54 % 93 % 31 % 1008,1 hPa 0,0 l/m 6,0 km/h (2 Bft) 0 min 0 min 24,9 km/h (4 Bft)
18.12.2011 10:24 11,6 C 1,6 C 0,0 UV-I 1,3 C 54 % 93 % 37 % 1008,5 hPa 0,0 l/m 5,6 km/h (1 Bft) 0 min 0 min 12,8 km/h (3 Bft)
18.12.2011 10:26 11,6 C 1,6 C 0,0 UV-I 1,5 C 54 % 93 % 43 % 1008,5 hPa 0,0 l/m 4,4 km/h (1 Bft) 0 min 0 min 6,8 km/h (2 Bft)
18.12.2011 10:28 11,6 C 1,6 C 0,0 UV-I 1,5 C 54 % 93 % 43 % 1008,5 hPa 0,0 l/m 4,4 km/h (1 Bft) 0 min 0 min 6,4 km/h (2 Bft)
18.12.2011 10:30 11,6 C 1,7 C 0,0 UV-I 1,7 C 54 % 93 % 49 % 1008,5 hPa 0,0 l/m 4,8 km/h (1 Bft) 2 min 0 min 8,4 km/h (2 Bft)
18.12.2011 10:32 11,6 C 1,7 C 0,0 UV-I 2,1 C 54 % 93 % 60 % 1008,5 hPa 0,0 l/m 4,4 km/h (1 Bft) 2 min 0 min 8,4 km/h (2 Bft)
18.12.2011 10:34 11,6 C 1,8 C 0,0 UV-I 2,2 C 54 % 93 % 63 % 1008,5 hPa 0,0 l/m 3,6 km/h (1 Bft) 2 min 0 min 7,2 km/h (2 Bft)
18.12.2011 10:36 11,6 C 1,9 C 0,0 UV-I 2,3 C 54 % 93 % 66 % 1008,5 hPa 0,0 l/m 4,4 km/h (1 Bft) 2 min 0 min 8,4 km/h (2 Bft)
18.12.2011 10:38 11,6 C 1,9 C 0,0 UV-I 2,5 C 54 % 93 % 71 % 1008,5 hPa 0,0 l/m 4,4 km/h (1 Bft) 2 min 0 min 8,4 km/h (2 Bft)
18.12.2011 10:40 11,7 C 1,8 C 0,0 UV-I 2,8 C 54 % 93 % 80 % 1008,5 hPa 0,0 l/m 4,8 km/h (1 Bft) 2 min 0 min 4,8 km/h (1 Bft)
18.12.2011 10:42 11,6 C 1,9 C 0,0 UV-I 3,0 C 54 % 93 % 86 % 1008,5 hPa 0,1 l/m 5,2 km/h (1 Bft) 2 min 0 min 15,3 km/h (3 Bft)
18.12.2011 10:44 11,7 C 1,9 C 0,0 UV-I 3,2 C 53 % 93 % 91 % 1008,7 hPa 0,0 l/m 5,2 km/h (1 Bft) 2 min 0 min 15,3 km/h (3 Bft)
18.12.2011 10:46 11,7 C 2,0 C 0,0 UV-I 3,2 C 53 % 93 % 91 % 1008,7 hPa 0,0 l/m 4,4 km/h (1 Bft) 2 min 0 min 6,8 km/h (2 Bft)
18.12.2011 10:48 11,6 C 2,0 C 0,0 UV-I 3,5 C 53 % 93 % 100 % 1008,7 hPa 0,0 l/m 4,0 km/h (1 Bft) 2 min 0 min 8,4 km/h (2 Bft)
18.12.2011 10:50 11,6 C 2,0 C 0,0 UV-I 3,7 C 54 % 93 % 100 % 1008,7 hPa 0,0 l/m 3,6 km/h (1 Bft) 2 min 0 min 8,4 km/h (2 Bft)
18.12.2011 10:52 11,8 C 2,1 C 0,0 UV-I 3,8 C 53 % 93 % 100 % 1008,7 hPa 0,0 l/m 3,6 km/h (1 Bft) 2 min 0 min 6,8 km/h (2 Bft)
18.12.2011 10:54 11,8 C 2,1 C 0,0 UV-I 3,8 C 53 % 93 % 100 % 1008,7 hPa 0,0 l/m 3,6 km/h (1 Bft) 2 min 0 min 10,4 km/h (2 Bft)
18.12.2011 10:56 11,8 C 2,3 C 0,0 UV-I 3,7 C 53 % 94 % 100 % 1008,7 hPa 0,0 l/m 4,0 km/h (1 Bft) 2 min 0 min 10,4 km/h (2 Bft)
18.12.2011 10:58 11,8 C 2,3 C 0,0 UV-I 3,7 C 53 % 94 % 100 % 1008,7 hPa 0,0 l/m 4,8 km/h (1 Bft) 2 min 0 min 10,0 km/h (2 Bft)
18.12.2011 11:00 11,8 C 2,2 C 0,0 UV-I 3,8 C 53 % 93 % 100 % 1008,7 hPa 0,0 l/m 5,6 km/h (1 Bft) 2 min 0 min 7,6 km/h (2 Bft)
18.12.2011 11:02 11,8 C 2,3 C 0,0 UV-I 3,7 C 53 % 93 % 100 % 1008,7 hPa 0,0 l/m 6,4 km/h (2 Bft) 2 min 0 min 16,5 km/h (3 Bft)
18.12.2011 11:06 11,8 C 2,4 C 0,0 UV-I 3,4 C 53 % 93 % 97 % 1009,1 hPa 0,0 l/m 7,2 km/h (2 Bft) 2 min 0 min 16,5 km/h (3 Bft)
18.12.2011 11:08 11,8 C 2,4 C 0,0 UV-I 3,3 C 53 % 93 % 94 % 1009,1 hPa 0,0 l/m 7,6 km/h (2 Bft) 2 min 0 min 13,7 km/h (3 Bft)
18.12.2011 11:10 11,8 C 2,5 C 0,0 UV-I 3,2 C 53 % 93 % 91 % 1009,1 hPa 0,0 l/m 7,2 km/h (2 Bft) 2 min 0 min 13,7 km/h (3 Bft)
18.12.2011 11:12 11,8 C 2,5 C 0,0 UV-I 3,3 C 53 % 93 % 94 % 1009,1 hPa 0,0 l/m 8,0 km/h (2 Bft) 2 min 0 min 28,5 km/h (4 Bft)
18.12.2011 11:14 11,8 C 2,6 C 0,0 UV-I 3,3 C 53 % 93 % 94 % 1009,1 hPa 0,0 l/m 8,0 km/h (2 Bft) 2 min 0 min 6,8 km/h (2 Bft)
18.12.2011 11:16 11,8 C 2,7 C 0,0 UV-I 3,4 C 53 % 93 % 97 % 1009,1 hPa 0,0 l/m 8,0 km/h (2 Bft) 2 min 0 min 8,8 km/h (2 Bft)
18.12.2011 11:18 11,8 C 2,7 C 0,0 UV-I 3,5 C 53 % 93 % 100 % 1009,1 hPa 0,0 l/m 8,0 km/h (2 Bft) 2 min 0 min 8,8 km/h (2 Bft)
18.12.2011 11:20 11,9 C 2,9 C 0,0 UV-I 3,6 C 53 % 93 % 100 % 1009,1 hPa 0,0 l/m 7,6 km/h (2 Bft) 2 min 0 min 6,8 km/h (2 Bft)
18.12.2011 11:22 11,9 C 2,8 C 0,0 UV-I 3,7 C 53 % 93 % 100 % 1009,1 hPa 0,0 l/m 7,2 km/h (2 Bft) 2 min 0 min 6,8 km/h (2 Bft)
18.12.2011 11:24 11,8 C 2,9 C 0,0 UV-I 3,7 C 53 % 93 % 100 % 1009,1 hPa 0,0 l/m 6,8 km/h (2 Bft) 2 min 0 min 6,4 km/h (2 Bft)
18.12.2011 11:26 11,9 C 2,9 C 0,0 UV-I 3,6 C 53 % 93 % 100 % 1009,1 hPa 0,0 l/m 7,2 km/h (2 Bft) 2 min 0 min 12,4 km/h (3 Bft)
18.12.2011 11:28 11,9 C 2,9 C 0,0 UV-I 3,6 C 53 % 93 % 100 % 1009,1 hPa 0,0 l/m 7,2 km/h (2 Bft) 2 min 0 min 12,4 km/h (3 Bft)
18.12.2011 11:30 11,8 C 2,9 C 0,0 UV-I 3,6 C 53 % 93 % 100 % 1009,1 hPa 0,0 l/m 7,2 km/h (2 Bft) 2 min 0 min 9,6 km/h (2 Bft)
18.12.2011 11:32 11,8 C 3,0 C 0,0 UV-I 3,7 C 53 % 93 % 100 % 1009,1 hPa 0,0 l/m 6,0 km/h (2 Bft) 2 min 0 min 6,8 km/h (2 Bft)
18.12.2011 11:34 12,0 C 3,1 C 0,1 UV-I 3,8 C 53 % 93 % 100 % 1009,1 hPa 0,0 l/m 5,6 km/h (1 Bft) 2 min 0 min 6,8 km/h (2 Bft)
18.12.2011 11:36 12,0 C 3,1 C 0,1 UV-I 4,0 C 53 % 93 % 100 % 1009,1 hPa 0,0 l/m 5,2 km/h (1 Bft) 2 min 0 min 4,8 km/h (1 Bft)
18.12.2011 11:38 12,0 C 3,2 C 0,1 UV-I 4,0 C 53 % 93 % 100 % 1009,1 hPa 0,0 l/m 4,8 km/h (1 Bft) 2 min 0 min 7,6 km/h (2 Bft)
18.12.2011 11:40 12,0 C 3,2 C 0,1 UV-I 4,1 C 53 % 92 % 100 % 1009,1 hPa 0,0 l/m 4,0 km/h (1 Bft) 2 min 0 min 7,6 km/h (2 Bft)
18.12.2011 11:42 12,0 C 3,3 C 0,1 UV-I 4,1 C 53 % 92 % 100 % 1009,1 hPa 0,0 l/m 5,2 km/h (1 Bft) 2 min 0 min 16,1 km/h (3 Bft)
18.12.2011 11:44 12,0 C 3,3 C 0,2 UV-I 4,3 C 53 % 92 % 100 % 1009,1 hPa 0,0 l/m 5,6 km/h (1 Bft) 2 min 0 min 16,1 km/h (3 Bft)
18.12.2011 11:46 12,0 C 3,5 C 0,2 UV-I 4,1 C 53 % 92 % 100 % 1009,1 hPa 0,0 l/m 6,0 km/h (2 Bft) 2 min 0 min 9,2 km/h (2 Bft)
18.12.2011 11:48 12,0 C 3,4 C 0,2 UV-I 4,2 C 53 % 92 % 100 % 1009,1 hPa 0,0 l/m 6,4 km/h (2 Bft) 2 min 0 min 6,8 km/h (2 Bft)
18.12.2011 11:50 11,9 C 3,6 C 0,2 UV-I 4,1 C 53 % 92 % 100 % 1009,1 hPa 0,0 l/m 6,4 km/h (2 Bft) 2 min 0 min 4,8 km/h (1 Bft)
18.12.2011 11:52 12,0 C 3,6 C 0,2 UV-I 4,2 C 53 % 92 % 100 % 1009,1 hPa 0,0 l/m 6,4 km/h (2 Bft) 2 min 0 min 12,8 km/h (3 Bft)
18.12.2011 11:54 11,9 C 3,7 C 0,2 UV-I 4,2 C 53 % 92 % 100 % 1009,1 hPa 0,0 l/m 6,4 km/h (2 Bft) 2 min 0 min 20,9 km/h (4 Bft)
18.12.2011 11:56 11,9 C 3,7 C 0,2 UV-I 4,1 C 53 % 92 % 100 % 1009,1 hPa 0,0 l/m 6,8 km/h (2 Bft) 2 min 0 min 20,9 km/h (4 Bft)
18.12.2011 11:58 11,9 C 3,8 C 0,2 UV-I 4,0 C 53 % 92 % 100 % 1009,1 hPa 0,0 l/m 6,4 km/h (2 Bft) 2 min 0 min 10,8 km/h (2 Bft)
18.12.2011 12:00 12,1 C 3,9 C 0,2 UV-I 3,9 C 53 % 92 % 100 % 1009,1 hPa 0,0 l/m 7,2 km/h (2 Bft) 2 min 0 min 7,2 km/h (2 Bft)
18.12.2011 12:02 11,9 C 3,8 C 0,2 UV-I 4,0 C 53 % 92 % 100 % 1009,1 hPa 0,0 l/m 7,2 km/h (2 Bft) 2 min 0 min 7,2 km/h (2 Bft)
18.12.2011 12:06 12,1 C 3,9 C 0,2 UV-I 4,1 C 53 % 91 % 100 % 1009,3 hPa 0,0 l/m 7,6 km/h (2 Bft) 2 min 0 min 7,2 km/h (2 Bft)
18.12.2011 12:08 12,1 C 3,9 C 0,2 UV-I 4,2 C 53 % 91 % 100 % 1009,3 hPa 0,0 l/m 8,0 km/h (2 Bft) 2 min 0 min 14,5 km/h (3 Bft)
18.12.2011 12:10 12,1 C 4,1 C 0,2 UV-I 3,9 C 53 % 90 % 100 % 1009,3 hPa 0,0 l/m 8,4 km/h (2 Bft) 2 min 0 min 14,5 km/h (3 Bft)
18.12.2011 12:12 12,1 C 4,0 C 0,2 UV-I 4,0 C 53 % 90 % 100 % 1009,3 hPa 0,0 l/m 8,8 km/h (2 Bft) 2 min 0 min 12,0 km/h (2 Bft)
18.12.2011 12:14 12,1 C 4,1 C 0,3 UV-I 4,0 C 53 % 90 % 100 % 1009,3 hPa 0,0 l/m 8,0 km/h (2 Bft) 2 min 0 min 12,0 km/h (2 Bft)
18.12.2011 12:16 12,1 C 4,1 C 0,3 UV-I 4,1 C 53 % 91 % 100 % 1009,3 hPa 0,0 l/m 8,0 km/h (2 Bft) 2 min 0 min 29,7 km/h (5 Bft)
18.12.2011 12:18 12,1 C 4,3 C 0,3 UV-I 4,0 C 53 % 90 % 100 % 1009,3 hPa 0,0 l/m 8,8 km/h (2 Bft) 2 min 0 min 33,7 km/h (5 Bft)
18.12.2011 12:20 12,2 C 4,3 C 0,3 UV-I 3,9 C 53 % 89 % 100 % 1009,3 hPa 0,0 l/m 9,6 km/h (2 Bft) 2 min 0 min 33,7 km/h (5 Bft)
18.12.2011 12:22 12,1 C 4,3 C 0,3 UV-I 3,9 C 53 % 90 % 100 % 1009,3 hPa 0,0 l/m 8,4 km/h (2 Bft) 2 min 0 min 33,7 km/h (5 Bft)
18.12.2011 12:24 12,2 C 4,3 C 0,3 UV-I 4,0 C 53 % 90 % 100 % 1009,4 hPa 0,0 l/m 8,0 km/h (2 Bft) 2 min 0 min 7,2 km/h (2 Bft)
18.12.2011 12:26 12,2 C 4,4 C 0,3 UV-I 4,0 C 53 % 90 % 100 % 1009,4 hPa 0,0 l/m 9,2 km/h (2 Bft) 2 min 0 min 7,6 km/h (2 Bft)
18.12.2011 12:28 12,2 C 4,5 C 0,3 UV-I 4,0 C 53 % 89 % 100 % 1009,4 hPa 0,0 l/m 9,2 km/h (2 Bft) 2 min 0 min 16,9 km/h (3 Bft)
18.12.2011 12:30 12,2 C 4,5 C 0,3 UV-I 3,9 C 53 % 89 % 100 % 1009,4 hPa 0,0 l/m 8,8 km/h (2 Bft) 2 min 0 min 16,9 km/h (3 Bft)
18.12.2011 12:32 12,2 C 4,5 C 0,3 UV-I 4,0 C 53 % 89 % 100 % 1009,4 hPa 0,0 l/m 8,0 km/h (2 Bft) 2 min 0 min 14,5 km/h (3 Bft)
18.12.2011 12:34 12,2 C 4,5 C 0,3 UV-I 4,1 C 53 % 89 % 100 % 1009,4 hPa 0,0 l/m 9,2 km/h (2 Bft) 2 min 0 min 13,7 km/h (3 Bft)
18.12.2011 12:36 12,2 C 4,6 C 0,3 UV-I 4,0 C 53 % 88 % 100 % 1009,4 hPa 0,0 l/m 8,8 km/h (2 Bft) 2 min 0 min 13,7 km/h (3 Bft)
18.12.2011 12:38 12,2 C 4,7 C 0,3 UV-I 3,9 C 53 % 88 % 100 % 1009,4 hPa 0,0 l/m 9,2 km/h (2 Bft) 2 min 0 min 8,8 km/h (2 Bft)
18.12.2011 12:40 12,2 C 4,6 C 0,3 UV-I 4,1 C 53 % 88 % 100 % 1009,4 hPa 0,0 l/m 8,4 km/h (2 Bft) 2 min 0 min 11,6 km/h (2 Bft)
18.12.2011 12:42 12,2 C 4,7 C 0,3 UV-I 4,0 C 53 % 88 % 100 % 1009,4 hPa 0,0 l/m 8,4 km/h (2 Bft) 2 min 0 min 11,6 km/h (2 Bft)
18.12.2011 12:44 12,2 C 4,6 C 0,3 UV-I 4,1 C 53 % 88 % 100 % 1009,5 hPa 0,0 l/m 8,8 km/h (2 Bft) 2 min 0 min 16,5 km/h (3 Bft)
18.12.2011 12:46 12,1 C 4,7 C 0,3 UV-I 4,0 C 53 % 88 % 100 % 1009,5 hPa 0,0 l/m 8,4 km/h (2 Bft) 2 min 0 min 16,5 km/h (3 Bft)
18.12.2011 12:48 12,3 C 4,7 C 0,3 UV-I 4,1 C 52 % 88 % 100 % 1009,5 hPa 0,0 l/m 8,8 km/h (2 Bft) 2 min 0 min 25,3 km/h (4 Bft)
18.12.2011 12:50 12,3 C 4,7 C 0,3 UV-I 4,1 C 52 % 88 % 100 % 1009,5 hPa 0,0 l/m 9,6 km/h (2 Bft) 2 min 2 min 25,3 km/h (4 Bft)
18.12.2011 12:52 12,3 C 4,7 C 0,3 UV-I 4,2 C 52 % 88 % 100 % 1009,5 hPa 0,0 l/m 8,8 km/h (2 Bft) 2 min 2 min 34,1 km/h (5 Bft)
18.12.2011 12:54 12,3 C 4,8 C 0,3 UV-I 4,1 C 52 % 88 % 100 % 1009,5 hPa 0,0 l/m 9,2 km/h (2 Bft) 2 min 0 min 11,2 km/h (2 Bft)
18.12.2011 12:56 12,3 C 4,8 C 0,3 UV-I 4,1 C 52 % 88 % 100 % 1009,5 hPa 0,0 l/m 8,4 km/h (2 Bft) 2 min 0 min 9,6 km/h (2 Bft)
18.12.2011 12:58 12,3 C 4,8 C 0,3 UV-I 4,1 C 52 % 88 % 100 % 1009,5 hPa 0,0 l/m 8,0 km/h (2 Bft) 2 min 0 min 7,6 km/h (2 Bft)
18.12.2011 13:00 12,2 C 4,8 C 0,3 UV-I 4,2 C 52 % 88 % 100 % 1009,5 hPa 0,0 l/m 6,8 km/h (2 Bft) 2 min 0 min 7,6 km/h (2 Bft)
18.12.2011 13:02 12,2 C 4,9 C 0,3 UV-I 4,3 C 52 % 88 % 100 % 1009,5 hPa 0,0 l/m 7,2 km/h (2 Bft) 2 min 2 min 8,4 km/h (2 Bft)
18.12.2011 13:06 12,4 C 4,9 C 0,3 UV-I 4,6 C 52 % 88 % 100 % 1009,6 hPa 0,0 l/m 4,8 km/h (1 Bft) 2 min 0 min 8,4 km/h (2 Bft)
18.12.2011 13:08 12,4 C 5,1 C 0,2 UV-I 4,5 C 52 % 88 % 100 % 1009,6 hPa 0,0 l/m 5,6 km/h (1 Bft) 2 min 0 min 14,5 km/h (3 Bft)
18.12.2011 13:10 12,4 C 5,1 C 0,2 UV-I 4,6 C 52 % 88 % 100 % 1009,6 hPa 0,0 l/m 6,0 km/h (2 Bft) 2 min 0 min 14,5 km/h (3 Bft)
18.12.2011 13:12 12,3 C 5,0 C 0,2 UV-I 4,6 C 52 % 87 % 100 % 1009,6 hPa 0,0 l/m 6,4 km/h (2 Bft) 2 min 0 min 11,2 km/h (2 Bft)
18.12.2011 13:14 12,3 C 5,1 C 0,2 UV-I 4,4 C 52 % 87 % 100 % 1009,6 hPa 0,0 l/m 6,8 km/h (2 Bft) 2 min 0 min 12,0 km/h (2 Bft)
18.12.2011 13:16 12,3 C 5,1 C 0,2 UV-I 4,4 C 52 % 88 % 100 % 1009,6 hPa 0,0 l/m 6,8 km/h (2 Bft) 2 min 0 min 12,0 km/h (2 Bft)
18.12.2011 13:18 12,3 C 5,1 C 0,2 UV-I 4,5 C 52 % 87 % 100 % 1009,6 hPa 0,0 l/m 8,0 km/h (2 Bft) 2 min 0 min 14,5 km/h (3 Bft)
18.12.2011 13:20 12,3 C 5,0 C 0,2 UV-I 4,5 C 52 % 86 % 100 % 1009,6 hPa 0,0 l/m 7,6 km/h (2 Bft) 2 min 0 min 14,5 km/h (3 Bft)
18.12.2011 13:22 12,5 C 5,1 C 0,2 UV-I 4,4 C 52 % 87 % 100 % 1009,6 hPa 0,0 l/m 7,6 km/h (2 Bft) 2 min 0 min 13,7 km/h (3 Bft)
18.12.2011 13:24 12,3 C 5,0 C 0,2 UV-I 4,4 C 52 % 86 % 100 % 1009,6 hPa 0,0 l/m 8,4 km/h (2 Bft) 2 min 0 min 13,7 km/h (3 Bft)
18.12.2011 13:26 12,5 C 5,1 C 0,2 UV-I 4,2 C 52 % 86 % 100 % 1009,6 hPa 0,0 l/m 8,8 km/h (2 Bft) 2 min 0 min 12,8 km/h (3 Bft)
18.12.2011 13:28 12,4 C 5,1 C 0,2 UV-I 4,1 C 52 % 86 % 100 % 1009,6 hPa 0,0 l/m 8,8 km/h (2 Bft) 2 min 0 min 11,2 km/h (2 Bft)
18.12.2011 13:30 12,4 C 5,0 C 0,2 UV-I 4,0 C 52 % 86 % 100 % 1009,6 hPa 0,0 l/m 8,8 km/h (2 Bft) 2 min 0 min 12,8 km/h (3 Bft)
18.12.2011 13:32 12,6 C 5,1 C 0,2 UV-I 3,9 C 52 % 86 % 100 % 1009,6 hPa 0,0 l/m 8,8 km/h (2 Bft) 2 min 0 min 12,8 km/h (3 Bft)
18.12.2011 13:34 12,6 C 5,1 C 0,2 UV-I 3,8 C 52 % 86 % 100 % 1009,6 hPa 0,0 l/m 7,6 km/h (2 Bft) 2 min 0 min 9,2 km/h (2 Bft)
18.12.2011 13:36 12,6 C 5,1 C 0,2 UV-I 3,4 C 52 % 86 % 97 % 1009,6 hPa 0,0 l/m 7,2 km/h (2 Bft) 2 min 0 min 9,2 km/h (2 Bft)
18.12.2011 13:38 12,6 C 4,9 C 0,1 UV-I 3,0 C 52 % 86 % 86 % 1009,6 hPa 0,0 l/m 7,6 km/h (2 Bft) 2 min 0 min 18,9 km/h (3 Bft)
18.12.2011 13:40 12,7 C 4,9 C 0,1 UV-I 2,8 C 52 % 85 % 80 % 1009,6 hPa 0,0 l/m 7,2 km/h (2 Bft) 2 min 0 min 18,9 km/h (3 Bft)
18.12.2011 13:42 12,7 C 5,0 C 0,1 UV-I 2,7 C 52 % 86 % 77 % 1009,6 hPa 0,0 l/m 6,8 km/h (2 Bft) 2 min 0 min 12,0 km/h (2 Bft)
18.12.2011 13:44 12,6 C 5,0 C 0,1 UV-I 2,9 C 52 % 85 % 83 % 1009,6 hPa 0,0 l/m 8,0 km/h (2 Bft) 2 min 0 min 25,3 km/h (4 Bft)
18.12.2011 13:46 12,8 C 5,1 C 0,1 UV-I 2,9 C 52 % 85 % 83 % 1009,6 hPa 0,0 l/m 8,4 km/h (2 Bft) 2 min 0 min 25,3 km/h (4 Bft)
18.12.2011 13:48 12,8 C 5,1 C 0,1 UV-I 3,1 C 52 % 85 % 89 % 1009,6 hPa 0,0 l/m 8,8 km/h (2 Bft) 2 min 0 min 18,1 km/h (3 Bft)
18.12.2011 13:50 12,9 C 5,1 C 0,1 UV-I 3,1 C 52 % 85 % 89 % 1009,6 hPa 0,0 l/m 9,6 km/h (2 Bft) 2 min 0 min 14,1 km/h (3 Bft)
18.12.2011 13:52 12,8 C 5,1 C 0,1 UV-I 2,9 C 52 % 84 % 83 % 1009,6 hPa 0,0 l/m 10,8 km/h (2 Bft) 2 min 0 min 15,7 km/h (3 Bft)
18.12.2011 13:54 12,8 C 5,1 C 0,1 UV-I 3,2 C 52 % 85 % 91 % 1009,6 hPa 0,0 l/m 10,0 km/h (2 Bft) 2 min 0 min 15,7 km/h (3 Bft)
18.12.2011 13:56 13,0 C 5,2 C 0,1 UV-I 3,2 C 52 % 85 % 91 % 1009,6 hPa 0,0 l/m 10,0 km/h (2 Bft) 2 min 0 min 30,5 km/h (5 Bft)
18.12.2011 13:58 12,9 C 5,2 C 0,1 UV-I 3,3 C 51 % 84 % 94 % 1009,6 hPa 0,0 l/m 10,0 km/h (2 Bft) 2 min 0 min 30,5 km/h (5 Bft)
18.12.2011 14:00 13,1 C 5,2 C 0,1 UV-I 3,3 C 51 % 84 % 94 % 1009,6 hPa 0,0 l/m 10,0 km/h (2 Bft) 2 min 0 min 11,6 km/h (2 Bft)
18.12.2011 14:02 13,1 C 5,2 C 0,1 UV-I 3,4 C 51 % 84 % 97 % 1009,6 hPa 0,0 l/m 9,2 km/h (2 Bft) 2 min 0 min 10,8 km/h (2 Bft)
18.12.2011 14:06 13,2 C 5,2 C 0,1 UV-I 3,5 C 51 % 84 % 100 % 1009,9 hPa 0,0 l/m 10,0 km/h (2 Bft) 2 min 0 min 16,1 km/h (3 Bft)
18.12.2011 14:08 13,1 C 5,1 C 0,1 UV-I 3,6 C 51 % 84 % 100 % 1009,9 hPa 0,0 l/m 9,2 km/h (2 Bft) 2 min 0 min 16,1 km/h (3 Bft)
18.12.2011 14:10 13,1 C 5,1 C 0,1 UV-I 3,6 C 51 % 84 % 100 % 1009,9 hPa 0,0 l/m 9,2 km/h (2 Bft) 2 min 0 min 13,3 km/h (3 Bft)
18.12.2011 14:12 13,1 C 5,1 C 0,1 UV-I 3,3 C 51 % 84 % 94 % 1009,9 hPa 0,0 l/m 9,6 km/h (2 Bft) 2 min 0 min 13,3 km/h (3 Bft)
18.12.2011 14:14 13,3 C 5,1 C 0,1 UV-I 3,3 C 51 % 84 % 94 % 1009,9 hPa 0,0 l/m 10,0 km/h (2 Bft) 2 min 0 min 14,5 km/h (3 Bft)
18.12.2011 14:16 13,2 C 5,1 C 0,1 UV-I 3,2 C 51 % 84 % 91 % 1009,9 hPa 0,0 l/m 10,0 km/h (2 Bft) 2 min 0 min 14,5 km/h (3 Bft)
18.12.2011 14:18 13,4 C 5,1 C 0,2 UV-I 3,1 C 51 % 84 % 89 % 1009,9 hPa 0,0 l/m 9,6 km/h (2 Bft) 2 min 0 min 11,2 km/h (2 Bft)
18.12.2011 14:20 13,2 C 5,0 C 0,2 UV-I 3,1 C 51 % 84 % 89 % 1009,9 hPa 0,0 l/m 9,6 km/h (2 Bft) 2 min 0 min 10,4 km/h (2 Bft)
18.12.2011 14:22 13,4 C 5,0 C 0,2 UV-I 2,8 C 51 % 84 % 80 % 1009,9 hPa 0,0 l/m 9,6 km/h (2 Bft) 2 min 0 min 10,4 km/h (2 Bft)
18.12.2011 14:24 13,4 C 4,9 C 0,1 UV-I 2,6 C 50 % 83 % 74 % 1010,3 hPa 0,0 l/m 9,6 km/h (2 Bft) 2 min 0 min 22,9 km/h (4 Bft)
18.12.2011 14:26 13,4 C 4,8 C 0,1 UV-I 2,3 C 50 % 83 % 66 % 1010,3 hPa 0,0 l/m 9,6 km/h (2 Bft) 2 min 0 min 22,9 km/h (4 Bft)
18.12.2011 14:28 13,4 C 4,8 C 0,0 UV-I 1,7 C 50 % 83 % 49 % 1010,3 hPa 0,0 l/m 10,4 km/h (2 Bft) 2 min 0 min 14,5 km/h (3 Bft)
18.12.2011 14:30 13,3 C 4,9 C 0,0 UV-I 1,5 C 50 % 84 % 43 % 1010,3 hPa 0,0 l/m 10,4 km/h (2 Bft) 0 min 0 min 14,5 km/h (3 Bft)
18.12.2011 14:32 13,5 C 4,8 C 0,0 UV-I 1,1 C 50 % 84 % 31 % 1010,3 hPa 0,0 l/m 11,6 km/h (2 Bft) 0 min 0 min 34,5 km/h (5 Bft)
18.12.2011 14:34 13,3 C 4,7 C 0,0 UV-I 0,7 C 50 % 84 % 20 % 1010,3 hPa 0,0 l/m 11,6 km/h (2 Bft) 0 min 0 min 24,9 km/h (4 Bft)
18.12.2011 14:36 13,3 C 4,7 C 0,0 UV-I 0,6 C 50 % 84 % 17 % 1010,3 hPa 0,0 l/m 10,0 km/h (2 Bft) 0 min 0 min 18,1 km/h (3 Bft)
18.12.2011 14:38 13,5 C 4,7 C 0,0 UV-I 0,5 C 50 % 84 % 14 % 1010,3 hPa 0,0 l/m 10,0 km/h (2 Bft) 0 min 0 min 18,9 km/h (3 Bft)
18.12.2011 14:40 13,3 C 4,6 C 0,0 UV-I 0,1 C 50 % 84 % 3 % 1010,3 hPa 0,0 l/m 10,4 km/h (2 Bft) 0 min 0 min 18,9 km/h (3 Bft)
18.12.2011 14:42 13,3 C 4,5 C 0,0 UV-I 0,2 C 50 % 84 % 6 % 1010,3 hPa 0,0 l/m 10,4 km/h (2 Bft) 0 min 0 min 10,8 km/h (2 Bft)
18.12.2011 14:44 13,4 C 4,5 C 0,0 UV-I 0,4 C 50 % 84 % 11 % 1010,4 hPa 0,0 l/m 8,4 km/h (2 Bft) 0 min 0 min 9,6 km/h (2 Bft)
18.12.2011 14:46 13,3 C 4,5 C 0,0 UV-I 0,2 C 50 % 84 % 6 % 1010,4 hPa 0,0 l/m 9,6 km/h (2 Bft) 0 min 0 min 16,1 km/h (3 Bft)
18.12.2011 14:48 13,4 C 4,4 C 0,0 UV-I 0,0 C 50 % 84 % 0 % 1010,4 hPa 0,0 l/m 9,6 km/h (2 Bft) 0 min 0 min 16,1 km/h (3 Bft)
18.12.2011 14:50 13,4 C 4,5 C 0,0 UV-I 0,0 C 50 % 84 % 0 % 1010,4 hPa 0,0 l/m 10,4 km/h (2 Bft) 0 min 0 min 25,3 km/h (4 Bft)
18.12.2011 14:52 13,4 C 4,4 C 0,0 UV-I 0,0 C 50 % 84 % 0 % 1010,4 hPa 0,0 l/m 10,8 km/h (2 Bft) 0 min 0 min 34,9 km/h (5 Bft)
18.12.2011 14:54 13,4 C 4,3 C 0,0 UV-I 0,0 C 50 % 84 % 0 % 1010,4 hPa 0,0 l/m 12,8 km/h (3 Bft) 0 min 0 min 25,3 km/h (4 Bft)
18.12.2011 14:56 13,4 C 4,2 C 0,0 UV-I 0,0 C 50 % 84 % 0 % 1010,4 hPa 0,0 l/m 13,3 km/h (3 Bft) 0 min 0 min 25,3 km/h (4 Bft)
18.12.2011 14:58 13,4 C 4,3 C 0,0 UV-I 0,0 C 50 % 85 % 0 % 1010,4 hPa 0,0 l/m 13,7 km/h (3 Bft) 0 min 0 min 22,1 km/h (4 Bft)
18.12.2011 15:00 13,4 C 4,1 C 0,0 UV-I 0,0 C 50 % 85 % 0 % 1010,4 hPa 0,0 l/m 13,7 km/h (3 Bft) 0 min 0 min 10,8 km/h (2 Bft)
18.12.2011 15:02 13,2 C 4,0 C 0,0 UV-I 0,0 C 50 % 85 % 0 % 1010,4 hPa 0,0 l/m 12,0 km/h (2 Bft) 0 min 0 min 11,6 km/h (2 Bft)
18.12.2011 15:06 13,2 C 3,9 C 0,0 UV-I 0,0 C 50 % 85 % 0 % 1010,9 hPa 0,0 l/m 11,2 km/h (2 Bft) 0 min 0 min 24,1 km/h (4 Bft)
18.12.2011 15:08 13,2 C 3,8 C 0,0 UV-I 0,0 C 50 % 85 % 0 % 1010,9 hPa 0,0 l/m 11,2 km/h (2 Bft) 0 min 0 min 24,1 km/h (4 Bft)
18.12.2011 15:10 13,3 C 3,6 C 0,0 UV-I 0,0 C 50 % 85 % 0 % 1010,9 hPa 0,0 l/m 12,0 km/h (2 Bft) 0 min 0 min 14,9 km/h (3 Bft)
18.12.2011 15:12 13,3 C 3,5 C 0,0 UV-I 0,0 C 50 % 85 % 0 % 1010,9 hPa 0,0 l/m 12,8 km/h (3 Bft) 0 min 0 min 48,6 km/h (6 Bft)
18.12.2011 15:14 13,1 C 3,4 C 0,0 UV-I 0,0 C 50 % 85 % 0 % 1010,9 hPa 0,0 l/m 13,3 km/h (3 Bft) 0 min 0 min 22,1 km/h (4 Bft)
18.12.2011 15:16 13,1 C 3,4 C 0,0 UV-I 0,0 C 50 % 85 % 0 % 1010,9 hPa 0,0 l/m 12,8 km/h (3 Bft) 0 min 0 min 22,1 km/h (4 Bft)
18.12.2011 15:18 13,2 C 3,2 C 0,0 UV-I 0,0 C 50 % 85 % 0 % 1010,9 hPa 0,0 l/m 12,0 km/h (2 Bft) 0 min 0 min 17,3 km/h (3 Bft)
18.12.2011 15:20 13,2 C 3,2 C 0,0 UV-I 0,0 C 50 % 85 % 0 % 1010,9 hPa 0,0 l/m 11,6 km/h (2 Bft) 0 min 0 min 13,3 km/h (3 Bft)
18.12.2011 15:22 13,2 C 3,1 C 0,0 UV-I 0,0 C 50 % 86 % 0 % 1010,9 hPa 0,0 l/m 10,4 km/h (2 Bft) 0 min 0 min 13,3 km/h (3 Bft)
18.12.2011 15:24 13,2 C 3,1 C 0,0 UV-I 0,0 C 50 % 86 % 0 % 1010,8 hPa 0,0 l/m 9,6 km/h (2 Bft) 0 min 0 min 14,1 km/h (3 Bft)
18.12.2011 15:26 13,1 C 2,9 C 0,0 UV-I 0,0 C 50 % 86 % 0 % 1010,8 hPa 0,0 l/m 9,2 km/h (2 Bft) 0 min 0 min 16,9 km/h (3 Bft)
18.12.2011 15:28 13,1 C 2,8 C 0,0 UV-I 0,0 C 50 % 86 % 0 % 1010,8 hPa 0,0 l/m 8,0 km/h (2 Bft) 0 min 0 min 16,9 km/h (3 Bft)
18.12.2011 15:30 13,1 C 2,9 C 0,0 UV-I 0,0 C 50 % 86 % 0 % 1010,8 hPa 0,0 l/m 8,0 km/h (2 Bft) 0 min 0 min 6,4 km/h (2 Bft)
18.12.2011 15:32 13,1 C 2,8 C 0,0 UV-I 0,0 C 50 % 86 % 0 % 1010,8 hPa 0,0 l/m 8,0 km/h (2 Bft) 0 min 0 min 19,7 km/h (3 Bft)
18.12.2011 15:34 13,1 C 2,7 C 0,0 UV-I 0,0 C 50 % 86 % 0 % 1010,8 hPa 0,0 l/m 7,6 km/h (2 Bft) 0 min 0 min 19,7 km/h (3 Bft)
18.12.2011 15:36 12,9 C 2,7 C 0,0 UV-I 0,0 C 50 % 86 % 0 % 1010,8 hPa 0,0 l/m 7,2 km/h (2 Bft) 0 min 0 min 12,4 km/h (3 Bft)
18.12.2011 15:38 13,0 C 2,6 C 0,0 UV-I 0,0 C 50 % 87 % 0 % 1010,8 hPa 0,0 l/m 7,6 km/h (2 Bft) 0 min 0 min 12,8 km/h (3 Bft)
18.12.2011 15:40 13,0 C 2,7 C 0,0 UV-I 0,0 C 50 % 87 % 0 % 1010,8 hPa 0,0 l/m 7,6 km/h (2 Bft) 0 min 0 min 12,8 km/h (3 Bft)
18.12.2011 15:42 13,0 C 2,7 C 0,0 UV-I 0,0 C 50 % 87 % 0 % 1010,8 hPa 0,0 l/m 8,4 km/h (2 Bft) 0 min 0 min 18,5 km/h (3 Bft)
18.12.2011 15:44 13,0 C 2,7 C 0,0 UV-I 0,0 C 50 % 87 % 0 % 1010,9 hPa 0,0 l/m 8,4 km/h (2 Bft) 0 min 0 min 18,5 km/h (3 Bft)
18.12.2011 15:46 13,0 C 2,5 C 0,0 UV-I 0,0 C 50 % 87 % 0 % 1010,9 hPa 0,0 l/m 8,8 km/h (2 Bft) 0 min 0 min 13,3 km/h (3 Bft)
18.12.2011 15:48 12,8 C 2,6 C 0,0 UV-I 0,0 C 50 % 87 % 0 % 1010,9 hPa 0,0 l/m 8,4 km/h (2 Bft) 0 min 0 min 7,2 km/h (2 Bft)
18.12.2011 15:50 12,8 C 2,6 C 0,0 UV-I 0,0 C 50 % 87 % 0 % 1010,9 hPa 0,0 l/m 7,6 km/h (2 Bft) 0 min 0 min 10,4 km/h (2 Bft)
18.12.2011 15:52 12,8 C 2,5 C 0,0 UV-I 0,0 C 50 % 87 % 0 % 1010,9 hPa 0,0 l/m 7,6 km/h (2 Bft) 0 min 0 min 10,4 km/h (2 Bft)
18.12.2011 15:54 12,9 C 2,5 C 0,0 UV-I 0,0 C 49 % 87 % 0 % 1010,9 hPa 0,0 l/m 6,4 km/h (2 Bft) 0 min 0 min 8,4 km/h (2 Bft)
18.12.2011 15:56 12,9 C 2,5 C 0,0 UV-I 0,0 C 49 % 87 % 0 % 1010,9 hPa 0,0 l/m 5,2 km/h (1 Bft) 0 min 0 min 6,0 km/h (2 Bft)
18.12.2011 15:58 12,9 C 2,4 C 0,0 UV-I 0,0 C 49 % 87 % 0 % 1010,9 hPa 0,0 l/m 5,2 km/h (1 Bft) 0 min 0 min 7,2 km/h (2 Bft)
18.12.2011 16:00 12,8 C 2,4 C 0,0 UV-I 0,0 C 50 % 87 % 0 % 1010,9 hPa 0,0 l/m 6,0 km/h (2 Bft) 0 min 0 min 11,2 km/h (2 Bft)
18.12.2011 16:02 12,8 C 2,4 C 0,0 UV-I 0,0 C 49 % 87 % 0 % 1010,9 hPa 0,0 l/m 4,8 km/h (1 Bft) 0 min 0 min 11,2 km/h (2 Bft)
18.12.2011 16:06 12,8 C 2,5 C 0,0 UV-I 0,0 C 50 % 87 % 0 % 1011,4 hPa 0,0 l/m 4,8 km/h (1 Bft) 0 min 0 min 10,0 km/h (2 Bft)
18.12.2011 16:08 12,8 C 2,5 C 0,0 UV-I 0,0 C 50 % 87 % 0 % 1011,4 hPa 0,0 l/m 5,6 km/h (1 Bft) 0 min 0 min 11,2 km/h (2 Bft)
18.12.2011 16:10 12,8 C 2,5 C 0,0 UV-I 0,0 C 50 % 87 % 0 % 1011,4 hPa 0,0 l/m 5,2 km/h (1 Bft) 0 min 0 min 15,7 km/h (3 Bft)
18.12.2011 16:12 12,8 C 2,5 C 0,0 UV-I 0,0 C 50 % 87 % 0 % 1011,4 hPa 0,0 l/m 5,6 km/h (1 Bft) 0 min 0 min 15,7 km/h (3 Bft)
18.12.2011 16:14 12,8 C 2,5 C 0,0 UV-I 0,0 C 50 % 87 % 0 % 1011,4 hPa 0,0 l/m 6,0 km/h (2 Bft) 0 min 0 min 14,5 km/h (3 Bft)
18.12.2011 16:16 12,8 C 2,5 C 0,0 UV-I 0,0 C 50 % 87 % 0 % 1011,4 hPa 0,0 l/m 6,8 km/h (2 Bft) 0 min 0 min 13,3 km/h (3 Bft)
18.12.2011 16:18 12,6 C 2,7 C 0,0 UV-I 0,0 C 50 % 87 % 0 % 1011,4 hPa 0,0 l/m 6,4 km/h (2 Bft) 0 min 0 min 13,3 km/h (3 Bft)
18.12.2011 16:20 12,6 C 2,6 C 0,0 UV-I 0,0 C 50 % 87 % 0 % 1011,4 hPa 0,0 l/m 6,8 km/h (2 Bft) 0 min 0 min 19,7 km/h (3 Bft)
18.12.2011 16:22 12,7 C 2,7 C 0,0 UV-I 0,0 C 50 % 87 % 0 % 1011,4 hPa 0,0 l/m 6,0 km/h (2 Bft) 0 min 0 min 19,7 km/h (3 Bft)
18.12.2011 16:24 12,7 C 2,7 C 0,0 UV-I 0,0 C 50 % 87 % 0 % 1011,3 hPa 0,0 l/m 6,8 km/h (2 Bft) 0 min 0 min 15,7 km/h (3 Bft)
18.12.2011 16:26 12,7 C 2,7 C 0,0 UV-I 0,0 C 50 % 87 % 0 % 1011,3 hPa 0,0 l/m 7,2 km/h (2 Bft) 0 min 0 min 23,3 km/h (4 Bft)
18.12.2011 16:28 12,7 C 2,6 C 0,0 UV-I 0,0 C 50 % 87 % 0 % 1011,3 hPa 0,0 l/m 6,8 km/h (2 Bft) 0 min 0 min 23,3 km/h (4 Bft)
18.12.2011 16:30 12,7 C 2,7 C 0,0 UV-I 0,0 C 50 % 87 % 0 % 1011,3 hPa 0,0 l/m 6,4 km/h (2 Bft) 0 min 0 min 6,8 km/h (2 Bft)
18.12.2011 16:32 12,6 C 2,7 C 0,0 UV-I 0,0 C 50 % 87 % 0 % 1011,3 hPa 0,0 l/m 5,2 km/h (1 Bft) 0 min 0 min 6,8 km/h (2 Bft)
18.12.2011 16:34 12,6 C 2,7 C 0,0 UV-I 0,0 C 50 % 87 % 0 % 1011,3 hPa 0,0 l/m 5,2 km/h (1 Bft) 0 min 0 min 6,8 km/h (2 Bft)
18.12.2011 16:36 12,6 C 2,7 C 0,0 UV-I 0,0 C 50 % 87 % 0 % 1011,3 hPa 0,0 l/m 4,0 km/h (1 Bft) 0 min 0 min 9,2 km/h (2 Bft)
18.12.2011 16:38 12,6 C 2,7 C 0,0 UV-I 0,0 C 50 % 87 % 0 % 1011,3 hPa 0,0 l/m 3,6 km/h (1 Bft) 0 min 0 min 9,2 km/h (2 Bft)
18.12.2011 16:40 12,6 C 2,7 C 0,0 UV-I 0,0 C 50 % 87 % 0 % 1011,3 hPa 0,0 l/m 3,2 km/h (1 Bft) 0 min 0 min 6,4 km/h (2 Bft)
18.12.2011 16:42 12,6 C 2,6 C 0,0 UV-I 0,0 C 50 % 88 % 0 % 1011,3 hPa 0,0 l/m 2,8 km/h (1 Bft) 0 min 0 min 5,6 km/h (1 Bft)
18.12.2011 16:44 12,6 C 2,7 C 0,0 UV-I 0,0 C 50 % 88 % 0 % 1011,3 hPa 0,0 l/m 2,4 km/h (1 Bft) 0 min 0 min 4,4 km/h (1 Bft)
18.12.2011 16:46 12,6 C 2,7 C 0,0 UV-I 0,0 C 50 % 88 % 0 % 1011,3 hPa 0,0 l/m 2,8 km/h (1 Bft) 0 min 0 min 0,0 km/h (0 Bft)
18.12.2011 16:48 12,6 C 2,6 C 0,0 UV-I 0,0 C 50 % 88 % 0 % 1011,3 hPa 0,0 l/m 2,0 km/h (1 Bft) 0 min 0 min 0,0 km/h (0 Bft)
18.12.2011 16:50 12,6 C 2,7 C 0,0 UV-I 0,0 C 50 % 88 % 0 % 1011,3 hPa 0,0 l/m 2,4 km/h (1 Bft) 0 min 0 min 7,6 km/h (2 Bft)
18.12.2011 16:52 12,6 C 2,6 C 0,0 UV-I 0,0 C 50 % 88 % 0 % 1011,3 hPa 0,0 l/m 2,4 km/h (1 Bft) 0 min 0 min 7,6 km/h (2 Bft)
18.12.2011 16:54 12,6 C 2,7 C 0,0 UV-I 0,0 C 50 % 88 % 0 % 1011,3 hPa 0,0 l/m 2,8 km/h (1 Bft) 0 min 0 min 4,8 km/h (1 Bft)
18.12.2011 16:56 12,6 C 2,6 C 0,0 UV-I 0,0 C 50 % 88 % 0 % 1011,3 hPa 0,0 l/m 2,4 km/h (1 Bft) 0 min 0 min 4,8 km/h (1 Bft)
18.12.2011 16:58 12,6 C 2,7 C 0,0 UV-I 0,0 C 50 % 88 % 0 % 1011,3 hPa 0,0 l/m 2,4 km/h (1 Bft) 0 min 0 min 6,0 km/h (2 Bft)
18.12.2011 17:00 12,6 C 2,7 C 0,0 UV-I 0,0 C 50 % 88 % 0 % 1011,3 hPa 0,0 l/m 2,4 km/h (1 Bft) 0 min 0 min 6,0 km/h (2 Bft)
18.12.2011 17:02 12,6 C 2,7 C 0,0 UV-I 0,0 C 50 % 88 % 0 % 1011,3 hPa 0,0 l/m 2,4 km/h (1 Bft) 0 min 0 min 6,8 km/h (2 Bft)
18.12.2011 17:06 12,4 C 2,7 C 0,0 UV-I 0,0 C 50 % 88 % 0 % 1011,4 hPa 0,0 l/m 1,6 km/h (1 Bft) 0 min 0 min 6,0 km/h (2 Bft)
18.12.2011 17:08 12,4 C 2,7 C 0,0 UV-I 0,0 C 50 % 88 % 0 % 1011,4 hPa 0,0 l/m 1,6 km/h (1 Bft) 0 min 0 min 6,0 km/h (2 Bft)
18.12.2011 17:10 12,4 C 2,6 C 0,0 UV-I 0,0 C 50 % 88 % 0 % 1011,4 hPa 0,0 l/m 1,2 km/h (1 Bft) 0 min 0 min 4,4 km/h (1 Bft)
18.12.2011 17:12 12,4 C 2,5 C 0,0 UV-I 0,0 C 50 % 88 % 0 % 1011,4 hPa 0,0 l/m 1,2 km/h (1 Bft) 0 min 0 min 4,4 km/h (1 Bft)
18.12.2011 17:14 12,4 C 2,5 C 0,0 UV-I 0,0 C 50 % 88 % 0 % 1011,4 hPa 0,0 l/m 0,4 km/h (0 Bft) 0 min 0 min 0,0 km/h (0 Bft)
18.12.2011 17:16 12,6 C 2,5 C 0,0 UV-I 0,0 C 50 % 88 % 0 % 1011,4 hPa 0,0 l/m 0,4 km/h (0 Bft) 0 min 0 min 0,0 km/h (0 Bft)
18.12.2011 17:18 12,6 C 2,4 C 0,0 UV-I 0,0 C 50 % 88 % 0 % 1011,4 hPa 0,0 l/m 0,4 km/h (0 Bft) 0 min 0 min 0,0 km/h (0 Bft)
18.12.2011 17:20 12,6 C 2,4 C 0,0 UV-I 0,0 C 50 % 88 % 0 % 1011,4 hPa 0,0 l/m 0,4 km/h (0 Bft) 0 min 0 min 0,0 km/h (0 Bft)
18.12.2011 17:22 12,6 C 2,4 C 0,0 UV-I 0,0 C 50 % 88 % 0 % 1011,4 hPa 0,0 l/m 0,0 km/h (0 Bft) 0 min 0 min 0,0 km/h (0 Bft)
18.12.2011 17:24 12,6 C 2,4 C 0,0 UV-I 0,0 C 50 % 88 % 0 % 1011,6 hPa 0,0 l/m 0,0 km/h (0 Bft) 0 min 0 min 0,0 km/h (0 Bft)
18.12.2011 17:26 12,6 C 2,4 C 0,0 UV-I 0,0 C 50 % 88 % 0 % 1011,6 hPa 0,0 l/m 0,0 km/h (0 Bft) 0 min 0 min 0,0 km/h (0 Bft)
18.12.2011 17:28 12,6 C 2,3 C 0,0 UV-I 0,0 C 50 % 88 % 0 % 1011,6 hPa 0,0 l/m 0,0 km/h (0 Bft) 0 min 0 min 0,0 km/h (0 Bft)
18.12.2011 17:30 12,6 C 2,3 C 0,0 UV-I 0,0 C 50 % 88 % 0 % 1011,6 hPa 0,0 l/m 0,0 km/h (0 Bft) 0 min 0 min 0,0 km/h (0 Bft)
18.12.2011 17:32 12,6 C 2,2 C 0,0 UV-I 0,0 C 51 % 88 % 0 % 1011,6 hPa 0,0 l/m 0,0 km/h (0 Bft) 0 min 0 min 0,0 km/h (0 Bft)
18.12.2011 17:34 12,6 C 2,3 C 0,0 UV-I 0,0 C 50 % 88 % 0 % 1011,6 hPa 0,0 l/m 0,0 km/h (0 Bft) 0 min 0 min 0,0 km/h (0 Bft)
18.12.2011 17:36 12,6 C 2,2 C 0,0 UV-I 0,0 C 50 % 87 % 0 % 1011,6 hPa 0,0 l/m 0,0 km/h (0 Bft) 0 min 0 min 0,0 km/h (0 Bft)
18.12.2011 17:38 12,6 C 2,1 C 0,0 UV-I 0,0 C 50 % 88 % 0 % 1011,6 hPa 0,0 l/m 0,0 km/h (0 Bft) 0 min 0 min 0,0 km/h (0 Bft)
18.12.2011 17:40 12,6 C 2,1 C 0,0 UV-I 0,0 C 50 % 88 % 0 % 1011,6 hPa 0,0 l/m 0,0 km/h (0 Bft) 0 min 0 min 0,0 km/h (0 Bft)
18.12.2011 17:42 12,6 C 2,0 C 0,0 UV-I 0,0 C 50 % 88 % 0 % 1011,6 hPa 0,0 l/m 0,0 km/h (0 Bft) 0 min 0 min 0,0 km/h (0 Bft)
18.12.2011 17:44 12,6 C 2,0 C 0,0 UV-I 0,0 C 51 % 88 % 0 % 1011,6 hPa 0,0 l/m 0,0 km/h (0 Bft) 0 min 0 min 0,0 km/h (0 Bft)
18.12.2011 17:46 12,6 C 2,0 C 0,0 UV-I 0,0 C 51 % 88 % 0 % 1011,6 hPa 0,0 l/m 0,0 km/h (0 Bft) 0 min 0 min 0,0 km/h (0 Bft)
18.12.2011 17:48 12,6 C 2,0 C 0,0 UV-I 0,0 C 50 % 88 % 0 % 1011,6 hPa 0,0 l/m 0,0 km/h (0 Bft) 0 min 0 min 0,0 km/h (0 Bft)
18.12.2011 17:50 12,6 C 1,9 C 0,0 UV-I 0,0 C 50 % 88 % 0 % 1011,6 hPa 0,0 l/m 0,0 km/h (0 Bft) 0 min 0 min 0,0 km/h (0 Bft)
18.12.2011 17:52 12,6 C 1,9 C 0,0 UV-I 0,0 C 51 % 88 % 0 % 1011,6 hPa 0,0 l/m 0,0 km/h (0 Bft) 0 min 0 min 0,0 km/h (0 Bft)
18.12.2011 17:54 12,6 C 1,9 C 0,0 UV-I 0,0 C 51 % 88 % 0 % 1011,6 hPa 0,0 l/m 0,0 km/h (0 Bft) 0 min 0 min 0,0 km/h (0 Bft)
18.12.2011 17:56 12,6 C 1,9 C 0,0 UV-I 0,0 C 51 % 88 % 0 % 1011,6 hPa 0,0 l/m 0,0 km/h (0 Bft) 0 min 0 min 0,0 km/h (0 Bft)
18.12.2011 17:58 12,6 C 1,9 C 0,0 UV-I 0,0 C 50 % 88 % 0 % 1011,6 hPa 0,0 l/m 0,4 km/h (0 Bft) 0 min 0 min 0,0 km/h (0 Bft)
18.12.2011 18:00 12,6 C 1,9 C 0,0 UV-I 0,0 C 50 % 88 % 0 % 1011,6 hPa 0,0 l/m 0,8 km/h (0 Bft) 0 min 0 min 6,0 km/h (2 Bft)
18.12.2011 18:02 12,6 C 1,8 C 0,0 UV-I 0,0 C 51 % 88 % 0 % 1011,6 hPa 0,0 l/m 0,8 km/h (0 Bft) 0 min 0 min 6,0 km/h (2 Bft)
18.12.2011 18:06 12,4 C 1,8 C 0,0 UV-I 0,0 C 51 % 88 % 0 % 1011,6 hPa 0,0 l/m 0,8 km/h (0 Bft) 0 min 0 min 0,0 km/h (0 Bft)
18.12.2011 18:08 12,4 C 1,8 C 0,0 UV-I 0,0 C 51 % 88 % 0 % 1011,6 hPa 0,0 l/m 1,6 km/h (1 Bft) 0 min 0 min 7,6 km/h (2 Bft)
18.12.2011 18:10 12,4 C 1,9 C 0,0 UV-I 0,0 C 51 % 88 % 0 % 1011,6 hPa 0,0 l/m 2,4 km/h (1 Bft) 0 min 0 min 10,4 km/h (2 Bft)
18.12.2011 18:12 12,4 C 1,9 C 0,0 UV-I 0,0 C 51 % 88 % 0 % 1011,6 hPa 0,0 l/m 2,4 km/h (1 Bft) 0 min 0 min 10,4 km/h (2 Bft)
18.12.2011 18:14 12,4 C 1,8 C 0,0 UV-I 0,0 C 51 % 88 % 0 % 1011,6 hPa 0,0 l/m 2,8 km/h (1 Bft) 0 min 0 min 7,2 km/h (2 Bft)
18.12.2011 18:16 12,5 C 1,8 C 0,0 UV-I 0,0 C 51 % 88 % 0 % 1011,6 hPa 0,0 l/m 3,2 km/h (1 Bft) 0 min 0 min 5,2 km/h (1 Bft)
18.12.2011 18:18 12,5 C 1,8 C 0,0 UV-I 0,0 C 50 % 88 % 0 % 1011,6 hPa 0,0 l/m 4,0 km/h (1 Bft) 0 min 0 min 5,6 km/h (1 Bft)
18.12.2011 18:20 12,5 C 1,8 C 0,0 UV-I 0,0 C 51 % 88 % 0 % 1011,6 hPa 0,0 l/m 3,6 km/h (1 Bft) 0 min 0 min 6,4 km/h (2 Bft)
18.12.2011 18:22 12,3 C 1,8 C 0,0 UV-I 0,0 C 51 % 89 % 0 % 1011,6 hPa 0,0 l/m 4,0 km/h (1 Bft) 0 min 0 min 9,6 km/h (2 Bft)
18.12.2011 18:24 12,3 C 1,9 C 0,0 UV-I 0,0 C 51 % 89 % 0 % 1011,6 hPa 0,0 l/m 4,0 km/h (1 Bft) 0 min 0 min 9,6 km/h (2 Bft)
18.12.2011 18:26 12,3 C 1,9 C 0,0 UV-I 0,0 C 51 % 89 % 0 % 1011,6 hPa 0,0 l/m 3,6 km/h (1 Bft) 0 min 0 min 9,2 km/h (2 Bft)
18.12.2011 18:28 12,3 C 1,9 C 0,0 UV-I 0,0 C 51 % 89 % 0 % 1011,6 hPa 0,0 l/m 3,6 km/h (1 Bft) 0 min 0 min 9,2 km/h (2 Bft)
18.12.2011 18:30 12,3 C 1,8 C 0,0 UV-I 0,0 C 51 % 89 % 0 % 1011,6 hPa 0,0 l/m 3,6 km/h (1 Bft) 0 min 0 min 13,3 km/h (3 Bft)
18.12.2011 18:32 12,4 C 1,8 C 0,0 UV-I 0,0 C 50 % 89 % 0 % 1011,6 hPa 0,0 l/m 3,6 km/h (1 Bft) 0 min 0 min 13,3 km/h (3 Bft)
18.12.2011 18:34 12,4 C 1,9 C 0,0 UV-I 0,0 C 50 % 89 % 0 % 1011,6 hPa 0,0 l/m 3,2 km/h (1 Bft) 0 min 0 min 9,2 km/h (2 Bft)
18.12.2011 18:36 12,4 C 1,9 C 0,0 UV-I 0,0 C 51 % 89 % 0 % 1011,6 hPa 0,0 l/m 3,6 km/h (1 Bft) 0 min 0 min 9,2 km/h (2 Bft)
18.12.2011 18:38 12,4 C 1,8 C 0,0 UV-I 0,0 C 51 % 89 % 0 % 1011,6 hPa 0,0 l/m 3,6 km/h (1 Bft) 0 min 0 min 10,0 km/h (2 Bft)
18.12.2011 18:40 12,4 C 1,8 C 0,0 UV-I 0,0 C 51 % 89 % 0 % 1011,6 hPa 0,0 l/m 3,6 km/h (1 Bft) 0 min 0 min 10,0 km/h (2 Bft)
18.12.2011 18:42 12,4 C 1,7 C 0,0 UV-I 0,0 C 51 % 89 % 0 % 1011,6 hPa 0,0 l/m 2,8 km/h (1 Bft) 0 min 0 min 9,6 km/h (2 Bft)
18.12.2011 18:44 12,4 C 1,7 C 0,0 UV-I 0,0 C 51 % 89 % 0 % 1011,6 hPa 0,0 l/m 3,2 km/h (1 Bft) 0 min 0 min 9,6 km/h (2 Bft)
18.12.2011 18:46 12,4 C 1,7 C 0,0 UV-I 0,0 C 51 % 89 % 0 % 1011,6 hPa 0,0 l/m 3,2 km/h (1 Bft) 0 min 0 min 10,4 km/h (2 Bft)
18.12.2011 18:48 12,4 C 1,7 C 0,0 UV-I 0,0 C 51 % 89 % 0 % 1011,6 hPa 0,0 l/m 3,2 km/h (1 Bft) 0 min 0 min 10,4 km/h (2 Bft)
18.12.2011 18:50 12,4 C 1,7 C 0,0 UV-I 0,0 C 51 % 89 % 0 % 1011,6 hPa 0,0 l/m 4,0 km/h (1 Bft) 0 min 0 min 5,2 km/h (1 Bft)
18.12.2011 18:52 12,2 C 1,7 C 0,0 UV-I 0,0 C 51 % 89 % 0 % 1011,6 hPa 0,0 l/m 4,0 km/h (1 Bft) 0 min 0 min 5,6 km/h (1 Bft)
18.12.2011 18:54 12,4 C 1,7 C 0,0 UV-I 0,0 C 51 % 89 % 0 % 1011,6 hPa 0,0 l/m 4,4 km/h (1 Bft) 0 min 0 min 5,6 km/h (1 Bft)
18.12.2011 18:56 12,2 C 1,7 C 0,0 UV-I 0,0 C 51 % 89 % 0 % 1011,6 hPa 0,0 l/m 4,0 km/h (1 Bft) 0 min 0 min 9,2 km/h (2 Bft)
18.12.2011 18:58 12,2 C 1,7 C 0,0 UV-I 0,0 C 51 % 89 % 0 % 1011,6 hPa 0,0 l/m 4,0 km/h (1 Bft) 0 min 0 min 9,2 km/h (2 Bft)
18.12.2011 19:00 12,3 C 1,7 C 0,0 UV-I 0,0 C 51 % 89 % 0 % 1011,6 hPa 0,0 l/m 4,0 km/h (1 Bft) 0 min 0 min 6,4 km/h (2 Bft)
18.12.2011 19:02 12,3 C 1,6 C 0,0 UV-I 0,0 C 51 % 89 % 0 % 1011,6 hPa 0,0 l/m 4,0 km/h (1 Bft) 0 min 0 min 5,6 km/h (1 Bft)
18.12.2011 19:06 12,3 C 1,6 C 0,0 UV-I 0,0 C 51 % 89 % 0 % 1011,8 hPa 0,0 l/m 3,6 km/h (1 Bft) 0 min 0 min 6,0 km/h (2 Bft)
18.12.2011 19:08 12,3 C 1,6 C 0,0 UV-I 0,0 C 51 % 89 % 0 % 1011,8 hPa 0,0 l/m 3,2 km/h (1 Bft) 0 min 0 min 0,0 km/h (0 Bft)
18.12.2011 19:10 12,3 C 1,6 C 0,0 UV-I 0,0 C 51 % 89 % 0 % 1011,8 hPa 0,0 l/m 3,2 km/h (1 Bft) 0 min 0 min 4,4 km/h (1 Bft)
18.12.2011 19:12 12,3 C 1,6 C 0,0 UV-I 0,0 C 51 % 89 % 0 % 1011,8 hPa 0,0 l/m 4,0 km/h (1 Bft) 0 min 0 min 9,6 km/h (2 Bft)
18.12.2011 19:14 12,3 C 1,7 C 0,0 UV-I 0,0 C 51 % 89 % 0 % 1011,8 hPa 0,0 l/m 3,6 km/h (1 Bft) 0 min 0 min 13,3 km/h (3 Bft)
18.12.2011 19:16 12,3 C 1,6 C 0,0 UV-I 0,0 C 51 % 89 % 0 % 1011,8 hPa 0,0 l/m 4,0 km/h (1 Bft) 0 min 0 min 13,3 km/h (3 Bft)
18.12.2011 19:18 12,3 C 1,6 C 0,0 UV-I 0,0 C 51 % 89 % 0 % 1011,8 hPa 0,0 l/m 4,0 km/h (1 Bft) 0 min 0 min 8,8 km/h (2 Bft)
18.12.2011 19:20 12,3 C 1,6 C 0,0 UV-I 0,0 C 51 % 89 % 0 % 1011,8 hPa 0,0 l/m 4,0 km/h (1 Bft) 0 min 0 min 10,0 km/h (2 Bft)
18.12.2011 19:22 12,1 C 1,6 C 0,0 UV-I 0,0 C 51 % 89 % 0 % 1011,8 hPa 0,0 l/m 4,0 km/h (1 Bft) 0 min 0 min 14,1 km/h (3 Bft)
18.12.2011 19:24 12,3 C 1,6 C 0,0 UV-I 0,0 C 50 % 89 % 0 % 1011,8 hPa 0,0 l/m 3,6 km/h (1 Bft) 0 min 0 min 14,1 km/h (3 Bft)
18.12.2011 19:26 12,1 C 1,5 C 0,0 UV-I 0,0 C 51 % 89 % 0 % 1011,8 hPa 0,0 l/m 3,6 km/h (1 Bft) 0 min 0 min 7,2 km/h (2 Bft)
18.12.2011 19:28 12,1 C 1,6 C 0,0 UV-I 0,0 C 50 % 89 % 0 % 1011,8 hPa 0,0 l/m 3,6 km/h (1 Bft) 0 min 0 min 7,2 km/h (2 Bft)
18.12.2011 19:30 12,2 C 1,5 C 0,0 UV-I 0,0 C 51 % 89 % 0 % 1011,8 hPa 0,0 l/m 3,2 km/h (1 Bft) 0 min 0 min 8,8 km/h (2 Bft)
18.12.2011 19:32 12,2 C 1,5 C 0,0 UV-I 0,0 C 50 % 89 % 0 % 1011,8 hPa 0,0 l/m 3,2 km/h (1 Bft) 0 min 0 min 8,8 km/h (2 Bft)
18.12.2011 19:34 12,2 C 1,5 C 0,0 UV-I 0,0 C 50 % 89 % 0 % 1011,8 hPa 0,0 l/m 3,2 km/h (1 Bft) 0 min 0 min 6,4 km/h (2 Bft)
18.12.2011 19:36 12,2 C 1,5 C 0,0 UV-I 0,0 C 51 % 89 % 0 % 1011,8 hPa 0,0 l/m 3,2 km/h (1 Bft) 0 min 0 min 6,4 km/h (2 Bft)
18.12.2011 19:38 12,2 C 1,5 C 0,0 UV-I 0,0 C 51 % 89 % 0 % 1011,8 hPa 0,0 l/m 2,8 km/h (1 Bft) 0 min 0 min 4,0 km/h (1 Bft)
18.12.2011 19:40 12,2 C 1,4 C 0,0 UV-I 0,0 C 50 % 89 % 0 % 1011,8 hPa 0,0 l/m 3,6 km/h (1 Bft) 0 min 0 min 9,2 km/h (2 Bft)
18.12.2011 19:42 12,2 C 1,5 C 0,0 UV-I 0,0 C 51 % 89 % 0 % 1011,8 hPa 0,0 l/m 4,0 km/h (1 Bft) 0 min 0 min 9,2 km/h (2 Bft)
18.12.2011 19:44 12,2 C 1,5 C 0,0 UV-I 0,0 C 51 % 89 % 0 % 1011,9 hPa 0,0 l/m 3,6 km/h (1 Bft) 0 min 0 min 6,4 km/h (2 Bft)
18.12.2011 19:46 12,2 C 1,4 C 0,0 UV-I 0,0 C 51 % 89 % 0 % 1011,9 hPa 0,0 l/m 4,0 km/h (1 Bft) 0 min 0 min 7,6 km/h (2 Bft)
18.12.2011 19:48 12,2 C 1,4 C 0,0 UV-I 0,0 C 51 % 89 % 0 % 1011,9 hPa 0,0 l/m 4,0 km/h (1 Bft) 0 min 0 min 7,6 km/h (2 Bft)
18.12.2011 19:50 12,2 C 1,4 C 0,0 UV-I 0,0 C 51 % 89 % 0 % 1011,9 hPa 0,0 l/m 4,0 km/h (1 Bft) 0 min 0 min 12,4 km/h (3 Bft)
18.12.2011 19:52 12,2 C 1,5 C 0,0 UV-I 0,0 C 51 % 89 % 0 % 1011,9 hPa 0,0 l/m 4,0 km/h (1 Bft) 0 min 0 min 12,4 km/h (3 Bft)
18.12.2011 19:54 12,2 C 1,5 C 0,0 UV-I 0,0 C 50 % 89 % 0 % 1011,9 hPa 0,0 l/m 4,0 km/h (1 Bft) 0 min 0 min 7,6 km/h (2 Bft)
18.12.2011 19:56 12,2 C 1,5 C 0,0 UV-I 0,0 C 50 % 89 % 0 % 1011,9 hPa 0,0 l/m 4,4 km/h (1 Bft) 0 min 0 min 7,6 km/h (2 Bft)
18.12.2011 19:58 12,2 C 1,5 C 0,0 UV-I 0,0 C 50 % 89 % 0 % 1011,9 hPa 0,0 l/m 5,2 km/h (1 Bft) 0 min 0 min 13,3 km/h (3 Bft)
18.12.2011 20:00 12,2 C 1,4 C 0,0 UV-I 0,0 C 50 % 89 % 0 % 1011,9 hPa 0,0 l/m 5,6 km/h (1 Bft) 0 min 0 min 13,3 km/h (3 Bft)
18.12.2011 20:02 12,2 C 1,4 C 0,0 UV-I 0,0 C 50 % 89 % 0 % 1011,9 hPa 0,0 l/m 6,0 km/h (2 Bft) 0 min 0 min 9,2 km/h (2 Bft)
18.12.2011 20:06 12,2 C 1,5 C 0,0 UV-I 0,0 C 50 % 89 % 0 % 1012,1 hPa 0,0 l/m 7,2 km/h (2 Bft) 0 min 0 min 9,6 km/h (2 Bft)
18.12.2011 20:08 12,1 C 1,5 C 0,0 UV-I 0,0 C 50 % 89 % 0 % 1012,1 hPa 0,0 l/m 7,6 km/h (2 Bft) 0 min 0 min 8,8 km/h (2 Bft)
18.12.2011 20:10 12,2 C 1,5 C 0,0 UV-I 0,0 C 50 % 89 % 0 % 1012,1 hPa 0,0 l/m 6,8 km/h (2 Bft) 0 min 0 min 8,8 km/h (2 Bft)
18.12.2011 20:12 12,1 C 1,5 C 0,0 UV-I 0,0 C 50 % 89 % 0 % 1012,1 hPa 0,0 l/m 7,2 km/h (2 Bft) 0 min 0 min 8,8 km/h (2 Bft)
18.12.2011 20:14 12,1 C 1,6 C 0,0 UV-I 0,0 C 50 % 89 % 0 % 1012,1 hPa 0,0 l/m 6,0 km/h (2 Bft) 0 min 0 min 5,6 km/h (1 Bft)
18.12.2011 20:16 12,1 C 1,6 C 0,0 UV-I 0,0 C 50 % 89 % 0 % 1012,1 hPa 0,0 l/m 6,0 km/h (2 Bft) 0 min 0 min 11,2 km/h (2 Bft)
18.12.2011 20:18 12,1 C 1,5 C 0,0 UV-I 0,0 C 50 % 89 % 0 % 1012,1 hPa 0,0 l/m 5,2 km/h (1 Bft) 0 min 0 min 11,2 km/h (2 Bft)
18.12.2011 20:20 12,1 C 1,5 C 0,0 UV-I 0,0 C 50 % 89 % 0 % 1012,1 hPa 0,0 l/m 5,2 km/h (1 Bft) 0 min 0 min 5,6 km/h (1 Bft)
18.12.2011 20:22 12,1 C 1,5 C 0,0 UV-I 0,0 C 50 % 89 % 0 % 1012,1 hPa 0,0 l/m 4,4 km/h (1 Bft) 0 min 0 min 5,6 km/h (1 Bft)
18.12.2011 20:24 12,1 C 1,5 C 0,0 UV-I 0,0 C 50 % 89 % 0 % 1012,2 hPa 0,0 l/m 4,8 km/h (1 Bft) 0 min 0 min 10,0 km/h (2 Bft)
18.12.2011 20:26 12,1 C 1,5 C 0,0 UV-I 0,0 C 50 % 89 % 0 % 1012,2 hPa 0,0 l/m 4,4 km/h (1 Bft) 0 min 0 min 10,0 km/h (2 Bft)
18.12.2011 20:28 12,1 C 1,5 C 0,0 UV-I 0,0 C 50 % 89 % 0 % 1012,2 hPa 0,0 l/m 4,0 km/h (1 Bft) 0 min 0 min 8,0 km/h (2 Bft)
18.12.2011 20:30 12,1 C 1,5 C 0,0 UV-I 0,0 C 50 % 89 % 0 % 1012,2 hPa 0,0 l/m 4,4 km/h (1 Bft) 0 min 0 min 6,0 km/h (2 Bft)
18.12.2011 20:32 12,1 C 1,4 C 0,0 UV-I 0,0 C 50 % 89 % 0 % 1012,2 hPa 0,0 l/m 5,2 km/h (1 Bft) 0 min 0 min 9,6 km/h (2 Bft)
18.12.2011 20:34 12,1 C 1,5 C 0,0 UV-I 0,0 C 50 % 89 % 0 % 1012,2 hPa 0,0 l/m 5,6 km/h (1 Bft) 0 min 0 min 9,6 km/h (2 Bft)
18.12.2011 20:36 12,1 C 1,5 C 0,0 UV-I 0,0 C 50 % 89 % 0 % 1012,2 hPa 0,0 l/m 5,6 km/h (1 Bft) 0 min 0 min 13,3 km/h (3 Bft)
18.12.2011 20:38 12,1 C 1,5 C 0,0 UV-I 0,0 C 50 % 89 % 0 % 1012,2 hPa 0,0 l/m 5,6 km/h (1 Bft) 0 min 0 min 13,3 km/h (3 Bft)
18.12.2011 20:40 12,1 C 1,5 C 0,0 UV-I 0,0 C 50 % 89 % 0 % 1012,2 hPa 0,0 l/m 6,4 km/h (2 Bft) 0 min 0 min 7,2 km/h (2 Bft)
18.12.2011 20:42 12,1 C 1,5 C 0,0 UV-I 0,0 C 50 % 89 % 0 % 1012,2 hPa 0,0 l/m 6,8 km/h (2 Bft) 0 min 0 min 12,8 km/h (3 Bft)
18.12.2011 20:44 11,9 C 1,5 C 0,0 UV-I 0,0 C 50 % 89 % 0 % 1012,1 hPa 0,0 l/m 7,2 km/h (2 Bft) 0 min 0 min 16,9 km/h (3 Bft)
18.12.2011 20:46 11,9 C 1,5 C 0,0 UV-I 0,0 C 50 % 89 % 0 % 1012,1 hPa 0,0 l/m 7,6 km/h (2 Bft) 0 min 0 min 16,9 km/h (3 Bft)
18.12.2011 20:48 11,9 C 1,6 C 0,0 UV-I 0,0 C 50 % 89 % 0 % 1012,1 hPa 0,0 l/m 7,2 km/h (2 Bft) 0 min 0 min 13,3 km/h (3 Bft)
18.12.2011 20:50 11,9 C 1,6 C 0,0 UV-I 0,0 C 50 % 89 % 0 % 1012,1 hPa 0,0 l/m 7,6 km/h (2 Bft) 0 min 0 min 14,5 km/h (3 Bft)
18.12.2011 20:52 11,9 C 1,6 C 0,0 UV-I 0,0 C 50 % 89 % 0 % 1012,1 hPa 0,0 l/m 8,0 km/h (2 Bft) 0 min 0 min 14,5 km/h (3 Bft)
18.12.2011 20:54 12,0 C 1,6 C 0,0 UV-I 0,0 C 50 % 89 % 0 % 1012,1 hPa 0,0 l/m 8,8 km/h (2 Bft) 0 min 0 min 12,4 km/h (3 Bft)
18.12.2011 20:56 12,0 C 1,6 C 0,0 UV-I 0,0 C 50 % 89 % 0 % 1012,1 hPa 0,0 l/m 9,6 km/h (2 Bft) 0 min 0 min 11,6 km/h (2 Bft)
18.12.2011 20:58 12,0 C 1,6 C 0,0 UV-I 0,0 C 50 % 89 % 0 % 1012,1 hPa 0,0 l/m 8,8 km/h (2 Bft) 0 min 0 min 11,6 km/h (2 Bft)
18.12.2011 21:00 12,0 C 1,7 C 0,0 UV-I 0,0 C 50 % 89 % 0 % 1012,1 hPa 0,0 l/m 9,2 km/h (2 Bft) 0 min 0 min 15,3 km/h (3 Bft)
18.12.2011 21:02 12,0 C 1,6 C 0,0 UV-I 0,0 C 50 % 89 % 0 % 1012,1 hPa 0,0 l/m 8,8 km/h (2 Bft) 0 min 0 min 15,3 km/h (3 Bft)
18.12.2011 21:06 12,0 C 1,6 C 0,0 UV-I 0,0 C 50 % 89 % 0 % 1012,1 hPa 0,0 l/m 8,0 km/h (2 Bft) 0 min 0 min 16,9 km/h (3 Bft)
18.12.2011 21:08 12,0 C 1,6 C 0,0 UV-I 0,0 C 50 % 89 % 0 % 1012,1 hPa 0,0 l/m 7,6 km/h (2 Bft) 0 min 0 min 11,2 km/h (2 Bft)
18.12.2011 21:10 12,0 C 1,6 C 0,0 UV-I 0,0 C 50 % 89 % 0 % 1012,1 hPa 0,0 l/m 8,0 km/h (2 Bft) 0 min 0 min 11,2 km/h (2 Bft)
18.12.2011 21:12 12,0 C 1,6 C 0,0 UV-I 0,0 C 50 % 89 % 0 % 1012,1 hPa 0,0 l/m 7,6 km/h (2 Bft) 0 min 0 min 13,3 km/h (3 Bft)
18.12.2011 21:14 12,0 C 1,6 C 0,0 UV-I 0,0 C 50 % 89 % 0 % 1012,1 hPa 0,0 l/m 7,6 km/h (2 Bft) 0 min 0 min 13,3 km/h (3 Bft)
18.12.2011 21:16 12,0 C 1,6 C 0,0 UV-I 0,0 C 50 % 89 % 0 % 1012,1 hPa 0,0 l/m 6,8 km/h (2 Bft) 0 min 0 min 10,8 km/h (2 Bft)
18.12.2011 21:18 12,0 C 1,6 C 0,0 UV-I 0,0 C 50 % 89 % 0 % 1012,1 hPa 0,0 l/m 6,8 km/h (2 Bft) 0 min 0 min 8,8 km/h (2 Bft)
18.12.2011 21:20 12,0 C 1,6 C 0,0 UV-I 0,0 C 50 % 89 % 0 % 1012,1 hPa 0,0 l/m 6,0 km/h (2 Bft) 0 min 0 min 8,8 km/h (2 Bft)
18.12.2011 21:22 12,0 C 1,5 C 0,0 UV-I 0,0 C 50 % 89 % 0 % 1012,1 hPa 0,0 l/m 5,2 km/h (1 Bft) 0 min 0 min 7,2 km/h (2 Bft)
18.12.2011 21:24 12,0 C 1,5 C 0,0 UV-I 0,0 C 50 % 89 % 0 % 1012,1 hPa 0,0 l/m 4,8 km/h (1 Bft) 0 min 0 min 7,2 km/h (2 Bft)
18.12.2011 21:26 11,8 C 1,5 C 0,0 UV-I 0,0 C 50 % 88 % 0 % 1012,1 hPa 0,0 l/m 4,4 km/h (1 Bft) 0 min 0 min 10,0 km/h (2 Bft)
18.12.2011 21:28 12,0 C 1,5 C 0,0 UV-I 0,0 C 50 % 88 % 0 % 1012,1 hPa 0,0 l/m 4,0 km/h (1 Bft) 0 min 0 min 10,4 km/h (2 Bft)
18.12.2011 21:30 12,0 C 1,5 C 0,0 UV-I 0,0 C 50 % 89 % 0 % 1012,1 hPa 0,0 l/m 3,6 km/h (1 Bft) 0 min 0 min 10,4 km/h (2 Bft)
18.12.2011 21:32 12,0 C 1,4 C 0,0 UV-I 0,0 C 50 % 89 % 0 % 1012,1 hPa 0,0 l/m 4,0 km/h (1 Bft) 0 min 0 min 8,8 km/h (2 Bft)
18.12.2011 21:34 12,0 C 1,4 C 0,0 UV-I 0,0 C 50 % 89 % 0 % 1012,1 hPa 0,0 l/m 4,4 km/h (1 Bft) 0 min 0 min 8,8 km/h (2 Bft)
18.12.2011 21:36 12,0 C 1,5 C 0,0 UV-I 0,0 C 50 % 89 % 0 % 1012,1 hPa 0,0 l/m 4,4 km/h (1 Bft) 0 min 0 min 8,4 km/h (2 Bft)
18.12.2011 21:38 12,0 C 1,5 C 0,0 UV-I 0,0 C 50 % 89 % 0 % 1012,1 hPa 0,0 l/m 5,2 km/h (1 Bft) 0 min 0 min 22,5 km/h (4 Bft)
18.12.2011 21:40 12,0 C 1,5 C 0,0 UV-I 0,0 C 50 % 89 % 0 % 1012,1 hPa 0,0 l/m 6,0 km/h (2 Bft) 0 min 0 min 22,5 km/h (4 Bft)
18.12.2011 21:42 12,0 C 1,5 C 0,0 UV-I 0,0 C 50 % 89 % 0 % 1012,1 hPa 0,0 l/m 6,4 km/h (2 Bft) 0 min 0 min 11,2 km/h (2 Bft)
18.12.2011 21:44 12,0 C 1,5 C 0,0 UV-I 0,0 C 50 % 89 % 0 % 1012,6 hPa 0,0 l/m 6,8 km/h (2 Bft) 0 min 0 min 16,1 km/h (3 Bft)
18.12.2011 21:46 12,0 C 1,5 C 0,0 UV-I 0,0 C 50 % 89 % 0 % 1012,6 hPa 0,0 l/m 7,6 km/h (2 Bft) 0 min 0 min 16,1 km/h (3 Bft)
18.12.2011 21:48 12,0 C 1,5 C 0,0 UV-I 0,0 C 50 % 89 % 0 % 1012,6 hPa 0,0 l/m 8,4 km/h (2 Bft) 0 min 0 min 15,3 km/h (3 Bft)
18.12.2011 21:50 12,0 C 1,5 C 0,0 UV-I 0,0 C 50 % 89 % 0 % 1012,6 hPa 0,0 l/m 7,6 km/h (2 Bft) 0 min 0 min 6,8 km/h (2 Bft)
18.12.2011 21:52 12,0 C 1,6 C 0,0 UV-I 0,0 C 50 % 89 % 0 % 1012,6 hPa 0,0 l/m 7,6 km/h (2 Bft) 0 min 0 min 7,6 km/h (2 Bft)
18.12.2011 21:54 12,0 C 1,6 C 0,0 UV-I 0,0 C 50 % 89 % 0 % 1012,6 hPa 0,0 l/m 6,8 km/h (2 Bft) 0 min 0 min 7,6 km/h (2 Bft)
18.12.2011 21:56 12,0 C 1,6 C 0,0 UV-I 0,0 C 50 % 89 % 0 % 1012,6 hPa 0,0 l/m 6,0 km/h (2 Bft) 0 min 0 min 6,0 km/h (2 Bft)
18.12.2011 21:58 12,0 C 1,5 C 0,0 UV-I 0,0 C 50 % 89 % 0 % 1012,6 hPa 0,0 l/m 5,6 km/h (1 Bft) 0 min 0 min 14,9 km/h (3 Bft)
18.12.2011 22:00 12,0 C 1,6 C 0,0 UV-I 0,0 C 50 % 89 % 0 % 1012,6 hPa 0,0 l/m 5,6 km/h (1 Bft) 0 min 0 min 14,9 km/h (3 Bft)
18.12.2011 22:02 12,0 C 1,6 C 0,0 UV-I 0,0 C 50 % 89 % 0 % 1012,6 hPa 0,0 l/m 5,6 km/h (1 Bft) 0 min 0 min 7,2 km/h (2 Bft)
18.12.2011 22:06 11,8 C 1,6 C 0,0 UV-I 0,0 C 50 % 89 % 0 % 1012,8 hPa 0,0 l/m 7,2 km/h (2 Bft) 0 min 0 min 14,5 km/h (3 Bft)
18.12.2011 22:08 11,8 C 1,7 C 0,0 UV-I 0,0 C 50 % 89 % 0 % 1012,8 hPa 0,0 l/m 7,2 km/h (2 Bft) 0 min 0 min 7,6 km/h (2 Bft)
18.12.2011 22:10 11,8 C 1,6 C 0,0 UV-I 0,0 C 50 % 89 % 0 % 1012,8 hPa 0,0 l/m 7,2 km/h (2 Bft) 0 min 0 min 7,6 km/h (2 Bft)
18.12.2011 22:12 11,8 C 1,7 C 0,0 UV-I 0,0 C 50 % 89 % 0 % 1012,8 hPa 0,0 l/m 6,8 km/h (2 Bft) 0 min 0 min 7,6 km/h (2 Bft)
18.12.2011 22:14 11,8 C 1,7 C 0,0 UV-I 0,0 C 50 % 89 % 0 % 1012,8 hPa 0,0 l/m 6,0 km/h (2 Bft) 0 min 0 min 6,8 km/h (2 Bft)
18.12.2011 22:16 11,8 C 1,7 C 0,0 UV-I 0,0 C 50 % 89 % 0 % 1012,8 hPa 0,0 l/m 4,8 km/h (1 Bft) 0 min 0 min 9,6 km/h (2 Bft)
18.12.2011 22:18 11,8 C 1,6 C 0,0 UV-I 0,0 C 50 % 89 % 0 % 1012,8 hPa 0,0 l/m 5,6 km/h (1 Bft) 0 min 0 min 14,1 km/h (3 Bft)
18.12.2011 22:20 11,8 C 1,6 C 0,0 UV-I 0,0 C 50 % 89 % 0 % 1012,8 hPa 0,0 l/m 6,0 km/h (2 Bft) 0 min 0 min 14,1 km/h (3 Bft)
18.12.2011 22:22 12,0 C 1,6 C 0,0 UV-I 0,0 C 50 % 89 % 0 % 1012,8 hPa 0,0 l/m 6,0 km/h (2 Bft) 0 min 0 min 14,1 km/h (3 Bft)
18.12.2011 22:24 12,0 C 1,6 C 0,0 UV-I 0,0 C 50 % 89 % 0 % 1012,7 hPa 0,0 l/m 6,4 km/h (2 Bft) 0 min 0 min 14,1 km/h (3 Bft)
18.12.2011 22:26 12,0 C 1,6 C 0,0 UV-I 0,0 C 50 % 89 % 0 % 1012,7 hPa 0,0 l/m 6,0 km/h (2 Bft) 0 min 0 min 6,4 km/h (2 Bft)
18.12.2011 22:28 11,8 C 1,6 C 0,0 UV-I 0,0 C 50 % 89 % 0 % 1012,7 hPa 0,0 l/m 5,6 km/h (1 Bft) 0 min 0 min 9,6 km/h (2 Bft)
18.12.2011 22:30 12,0 C 1,6 C 0,0 UV-I 0,0 C 50 % 89 % 0 % 1012,7 hPa 0,0 l/m 6,0 km/h (2 Bft) 0 min 0 min 9,6 km/h (2 Bft)
18.12.2011 22:32 12,0 C 1,6 C 0,0 UV-I 0,0 C 50 % 89 % 0 % 1012,7 hPa 0,0 l/m 5,2 km/h (1 Bft) 0 min 0 min 9,2 km/h (2 Bft)
18.12.2011 22:34 12,0 C 1,6 C 0,0 UV-I 0,0 C 50 % 89 % 0 % 1012,7 hPa 0,0 l/m 4,4 km/h (1 Bft) 0 min 0 min 7,6 km/h (2 Bft)
18.12.2011 22:36 12,0 C 1,6 C 0,0 UV-I 0,0 C 50 % 89 % 0 % 1012,7 hPa 0,0 l/m 4,8 km/h (1 Bft) 0 min 0 min 0,0 km/h (0 Bft)
18.12.2011 22:38 12,0 C 1,6 C 0,0 UV-I 0,0 C 50 % 89 % 0 % 1012,7 hPa 0,0 l/m 5,6 km/h (1 Bft) 0 min 0 min 15,3 km/h (3 Bft)
18.12.2011 22:40 12,0 C 1,6 C 0,0 UV-I 0,0 C 50 % 89 % 0 % 1012,7 hPa 0,0 l/m 5,2 km/h (1 Bft) 0 min 0 min 15,3 km/h (3 Bft)
18.12.2011 22:42 12,0 C 1,6 C 0,0 UV-I 0,0 C 50 % 89 % 0 % 1012,7 hPa 0,0 l/m 4,4 km/h (1 Bft) 0 min 0 min 6,0 km/h (2 Bft)
18.12.2011 22:44 12,0 C 1,6 C 0,0 UV-I 0,0 C 50 % 89 % 0 % 1012,6 hPa 0,0 l/m 4,4 km/h (1 Bft) 0 min 0 min 10,4 km/h (2 Bft)
18.12.2011 22:46 12,0 C 1,6 C 0,0 UV-I 0,0 C 50 % 89 % 0 % 1012,6 hPa 0,0 l/m 4,8 km/h (1 Bft) 0 min 0 min 10,4 km/h (2 Bft)
18.12.2011 22:48 12,0 C 1,6 C 0,0 UV-I 0,0 C 50 % 89 % 0 % 1012,6 hPa 0,0 l/m 5,6 km/h (1 Bft) 0 min 0 min 9,6 km/h (2 Bft)
18.12.2011 22:50 12,0 C 1,7 C 0,0 UV-I 0,0 C 50 % 89 % 0 % 1012,6 hPa 0,0 l/m 4,4 km/h (1 Bft) 0 min 0 min 9,6 km/h (2 Bft)
18.12.2011 22:52 12,0 C 1,6 C 0,0 UV-I 0,0 C 50 % 89 % 0 % 1012,6 hPa 0,0 l/m 4,4 km/h (1 Bft) 0 min 0 min 8,0 km/h (2 Bft)
18.12.2011 22:54 12,0 C 1,6 C 0,0 UV-I 0,0 C 50 % 89 % 0 % 1012,6 hPa 0,0 l/m 4,4 km/h (1 Bft) 0 min 0 min 6,4 km/h (2 Bft)
18.12.2011 22:56 12,0 C 1,6 C 0,0 UV-I 0,0 C 50 % 89 % 0 % 1012,6 hPa 0,0 l/m 4,0 km/h (1 Bft) 0 min 0 min 9,2 km/h (2 Bft)
18.12.2011 22:58 12,0 C 1,6 C 0,0 UV-I 0,0 C 50 % 89 % 0 % 1012,6 hPa 0,0 l/m 4,0 km/h (1 Bft) 0 min 0 min 12,8 km/h (3 Bft)
18.12.2011 23:00 12,0 C 1,7 C 0,0 UV-I 0,0 C 50 % 89 % 0 % 1012,6 hPa 0,0 l/m 3,2 km/h (1 Bft) 0 min 0 min 12,8 km/h (3 Bft)
18.12.2011 23:02 12,0 C 1,6 C 0,0 UV-I 0,0 C 50 % 89 % 0 % 1012,6 hPa 0,0 l/m 3,6 km/h (1 Bft) 0 min 0 min 5,2 km/h (1 Bft)
18.12.2011 23:06 11,9 C 1,6 C 0,0 UV-I 0,0 C 50 % 89 % 0 % 1012,6 hPa 0,0 l/m 3,6 km/h (1 Bft) 0 min 0 min 7,6 km/h (2 Bft)
18.12.2011 23:08 11,9 C 1,7 C 0,0 UV-I 0,0 C 50 % 89 % 0 % 1012,6 hPa 0,0 l/m 4,0 km/h (1 Bft) 0 min 0 min 8,4 km/h (2 Bft)
18.12.2011 23:10 11,9 C 1,6 C 0,0 UV-I 0,0 C 50 % 89 % 0 % 1012,6 hPa 0,0 l/m 4,0 km/h (1 Bft) 0 min 0 min 8,4 km/h (2 Bft)
18.12.2011 23:12 11,9 C 1,7 C 0,0 UV-I 0,0 C 50 % 89 % 0 % 1012,6 hPa 0,0 l/m 4,4 km/h (1 Bft) 0 min 0 min 17,3 km/h (3 Bft)
18.12.2011 23:14 11,9 C 1,7 C 0,0 UV-I 0,0 C 50 % 89 % 0 % 1012,6 hPa 0,0 l/m 5,6 km/h (1 Bft) 0 min 0 min 17,3 km/h (3 Bft)
18.12.2011 23:16 11,9 C 1,7 C 0,0 UV-I 0,0 C 50 % 89 % 0 % 1012,6 hPa 0,0 l/m 6,0 km/h (2 Bft) 0 min 0 min 8,4 km/h (2 Bft)
18.12.2011 23:18 11,9 C 1,7 C 0,0 UV-I 0,0 C 50 % 89 % 0 % 1012,6 hPa 0,0 l/m 6,0 km/h (2 Bft) 0 min 0 min 9,2 km/h (2 Bft)
18.12.2011 23:20 11,9 C 1,7 C 0,0 UV-I 0,0 C 50 % 89 % 0 % 1012,6 hPa 0,0 l/m 4,8 km/h (1 Bft) 0 min 0 min 9,2 km/h (2 Bft)
18.12.2011 23:22 11,9 C 1,7 C 0,0 UV-I 0,0 C 50 % 89 % 0 % 1012,6 hPa 0,0 l/m 5,2 km/h (1 Bft) 0 min 0 min 13,3 km/h (3 Bft)
18.12.2011 23:24 11,9 C 1,7 C 0,0 UV-I 0,0 C 50 % 89 % 0 % 1013,1 hPa 0,0 l/m 4,4 km/h (1 Bft) 0 min 0 min 13,3 km/h (3 Bft)
18.12.2011 23:26 11,9 C 1,7 C 0,0 UV-I 0,0 C 50 % 89 % 0 % 1013,1 hPa 0,0 l/m 4,8 km/h (1 Bft) 0 min 0 min 12,0 km/h (2 Bft)
18.12.2011 23:28 11,9 C 1,7 C 0,0 UV-I 0,0 C 50 % 89 % 0 % 1013,1 hPa 0,0 l/m 4,8 km/h (1 Bft) 0 min 0 min 7,2 km/h (2 Bft)
18.12.2011 23:30 11,9 C 1,7 C 0,0 UV-I 0,0 C 50 % 89 % 0 % 1013,1 hPa 0,0 l/m 5,2 km/h (1 Bft) 0 min 0 min 7,2 km/h (2 Bft)
18.12.2011 23:32 11,9 C 1,6 C 0,0 UV-I 0,0 C 50 % 89 % 0 % 1013,1 hPa 0,0 l/m 5,6 km/h (1 Bft) 0 min 0 min 6,4 km/h (2 Bft)
18.12.2011 23:34 11,9 C 1,7 C 0,0 UV-I 0,0 C 50 % 89 % 0 % 1013,1 hPa 0,0 l/m 5,6 km/h (1 Bft) 0 min 0 min 8,4 km/h (2 Bft)
18.12.2011 23:36 11,9 C 1,7 C 0,0 UV-I 0,0 C 50 % 89 % 0 % 1013,1 hPa 0,0 l/m 5,2 km/h (1 Bft) 0 min 0 min 10,4 km/h (2 Bft)
18.12.2011 23:38 11,9 C 1,7 C 0,0 UV-I 0,0 C 50 % 89 % 0 % 1013,1 hPa 0,0 l/m 4,8 km/h (1 Bft) 0 min 0 min 10,4 km/h (2 Bft)
18.12.2011 23:40 11,9 C 1,6 C 0,0 UV-I 0,0 C 50 % 89 % 0 % 1013,1 hPa 0,0 l/m 4,8 km/h (1 Bft) 0 min 0 min 7,2 km/h (2 Bft)
18.12.2011 23:42 11,9 C 1,6 C 0,0 UV-I 0,0 C 50 % 89 % 0 % 1013,1 hPa 0,0 l/m 4,0 km/h (1 Bft) 0 min 0 min 5,2 km/h (1 Bft)
18.12.2011 23:44 11,9 C 1,7 C 0,0 UV-I 0,0 C 50 % 89 % 0 % 1013,1 hPa 0,0 l/m 4,0 km/h (1 Bft) 0 min 0 min 6,0 km/h (2 Bft)
18.12.2011 23:46 11,9 C 1,6 C 0,0 UV-I 0,0 C 50 % 89 % 0 % 1013,1 hPa 0,0 l/m 4,0 km/h (1 Bft) 0 min 0 min 6,0 km/h (2 Bft)
18.12.2011 23:48 12,1 C 1,6 C 0,0 UV-I 0,0 C 50 % 89 % 0 % 1013,1 hPa 0,0 l/m 2,8 km/h (1 Bft) 0 min 0 min 6,0 km/h (2 Bft)
18.12.2011 23:50 12,1 C 1,6 C 0,0 UV-I 0,0 C 50 % 89 % 0 % 1013,1 hPa 0,0 l/m 3,2 km/h (1 Bft) 0 min 0 min 7,6 km/h (2 Bft)
18.12.2011 23:52 12,1 C 1,6 C 0,0 UV-I 0,0 C 50 % 89 % 0 % 1013,1 hPa 0,0 l/m 3,2 km/h (1 Bft) 0 min 0 min 4,0 km/h (1 Bft)
18.12.2011 23:54 12,1 C 1,6 C 0,0 UV-I 0,0 C 50 % 89 % 0 % 1013,1 hPa 0,0 l/m 3,6 km/h (1 Bft) 0 min 0 min 8,0 km/h (2 Bft)
18.12.2011 23:56 12,1 C 1,6 C 0,0 UV-I 0,0 C 50 % 89 % 0 % 1013,1 hPa 0,0 l/m 3,6 km/h (1 Bft) 0 min 0 min 8,0 km/h (2 Bft)
18.12.2011 23:58 12,1 C 1,6 C 0,0 UV-I 0,0 C 50 % 89 % 0 % 1013,1 hPa 0,0 l/m 4,0 km/h (1 Bft) 0 min 0 min 6,4 km/h (2 Bft)
_ Min-Zeit 00:52 07:10 00:00 00:00 15:54 14:24 00:00 00:04 - 17:22 - - 00:58
Minimum _ 10,9 C 1,0 C 0,0 UV-I 0,0 C 49 % 83 % 0 % 1003,6 hPa - 0,0 km/h (0 Bft) - - 0,0 km/h (0 Bft)
_ Max-Zeit 14:32 13:56 12:14 13:12 04:26 10:56 10:48 23:24 06:08 14:58 10:30 00:00 15:12
Maximum _ 13,5 C 5,2 C 0,3 UV-I 4,6 C 56 % 94 % 100 % 1013,1 hPa 0,2 l/m 13,7 km/h
N-NO (3 Bft)
2 min 2 min 48,6 km/h
W-NW (6 Bft)
Durchschnitt _ 11,8 C 2,3 C 0,0 UV-I 0,6 C 52 % 90 % 16 % 1008,5 hPa #5,0 l/m 4,9 km/h (1 Bft) #3:52 h #5:42 h 9,8 km/h (2 Bft)
© 2012 W. Hausmann